Date StartTime U_cm/s V_cm/s W_cm/s Ustd_cm/s Vstd_cm/s Wstd_cm/s Uvar_(cm/s)^2 Vvar_(cm/s)^2 Wvar_(cm/s)^2 KE_(m/s)^2 TurbulentKE_(m/s)^2 HorizWindSpeed_cm/s FrictionSpeec_cm/s DragCoef SpeedOfSound_m/s SonicTemperature_C Pressure_mb 
06/05/2013  00:00:00      -75.478      -55.196        2.675       55.169       35.215       22.187     3043.584     1240.103      492.247        0.676        0.239       93.507       27.859        0.089      344.632       21.587      861.471
06/05/2013  00:01:00      -62.511      -35.617        3.188       48.174       36.977       25.775     2320.708     1367.286      664.343        0.477        0.218       71.946       23.495        0.107      344.564       21.472      861.464
06/05/2013  00:02:00      -64.534       15.348        2.515       44.952       26.906       19.641     2020.725      723.949      385.755        0.377        0.157       66.334       21.076        0.101      344.653       21.625      861.495
06/05/2013  00:03:00      -74.412      -23.702      -14.635       22.734       28.405       18.677      516.839      806.840      348.823        0.399        0.084       78.095       13.018        0.028      344.762       21.811      861.496
06/05/2013  00:04:00      -56.360      -45.531       -3.777       58.535       44.481       33.475     3426.352     1978.553     1120.549        0.589        0.326       72.454       26.418        0.133      344.769       21.823      861.486
06/05/2013  00:05:00      -79.555      -80.455        1.920       42.101       36.429       28.582     1772.484     1327.037      816.905        0.836        0.196      113.146       22.484        0.039      344.667       21.650      861.491
06/05/2013  00:06:00     -127.832      -41.484       -9.922       34.309       38.437       20.448     1177.102     1477.387      418.111        1.062        0.154      134.394       17.725        0.017      344.619       21.565      861.490
06/05/2013  00:07:00     -124.897       -6.535      -11.263       37.010       27.902       20.987     1369.746      778.510      440.470        0.918        0.129      125.068       18.413        0.022      344.401       21.193      861.489
06/05/2013  00:08:00     -103.561      -48.176      -11.404       24.949       18.127       14.627      622.472      328.578      213.954        0.717        0.058      114.218        9.638        0.007      344.429       21.241      861.496
06/05/2013  00:09:00     -132.202      -17.156      -11.288       36.167       46.838       22.346     1308.067     2193.811      499.350        1.095        0.200      133.311       20.257        0.023      344.246       20.930      861.480
06/05/2013  00:10:00     -152.138       44.851      -10.026       69.852       42.253       31.038     4879.329     1785.352      963.382        1.644        0.381      158.611       29.775        0.035      344.097       20.673      861.488
06/05/2013  00:11:00      -80.250      -19.203      -12.240       44.613       26.296       18.592     1990.354      691.472      345.681        0.499        0.151       82.515       12.461        0.023      344.116       20.708      861.483
06/05/2013  00:12:00      -80.116      -15.219       -6.382       45.334       35.773       20.502     2055.172     1279.679      420.346        0.522        0.188       81.549       20.127        0.061      344.067       20.623      861.486
06/05/2013  00:13:00     -185.227       43.894      -20.165       78.179       53.580       29.068     6112.011     2870.841      844.937        2.323        0.491      190.357       31.993        0.028      344.013       20.529      861.508
06/05/2013  00:14:00      -87.635      -22.824       -1.000       39.185       45.631       25.671     1535.469     2082.179      658.987        0.624        0.214       90.558       18.393        0.041      343.965       20.448      861.507
06/05/2013  00:15:00      -91.846      -39.032       -4.033       29.509       23.454       17.573      870.766      550.091      308.804        0.585        0.086       99.796       15.083        0.023      343.979       20.473      861.509
06/05/2013  00:16:00      -45.455      -33.132       -1.638       26.514       30.754       16.745      702.968      945.824      280.388        0.255        0.096       56.248       10.460        0.035      343.978       20.470      861.525
06/05/2013  00:17:00      -25.898      -17.826       11.470       32.623       23.718       15.642     1064.262      562.551      244.681        0.150        0.094       31.440       15.018        0.228      343.977       20.469      861.537
06/05/2013  00:18:00      -14.429       13.688       13.247       25.767       11.750       14.185      663.936      138.062      201.226        0.079        0.050       19.889        8.770        0.194      343.916       20.366      861.558
06/05/2013  00:19:00       18.824        0.206        1.654       26.322       15.389       13.244      692.866      236.817      175.395        0.073        0.055       18.825       15.014        0.636      343.967       20.452      861.590
06/05/2013  00:20:00       36.451        8.946       -3.262       28.062       42.003       16.747      787.461     1764.240      280.461        0.213        0.142       37.533       11.959        0.102      344.143       20.752      861.599
06/05/2013  00:21:00       -1.909      -44.397        3.316       17.732       35.315       15.195      314.411     1247.137      230.875        0.189        0.090       44.438       14.456        0.106      344.496       21.354      861.584
06/05/2013  00:22:00      -48.067       11.605       -0.406       28.254       40.140       19.043      798.283     1611.207      362.639        0.261        0.139       49.448       16.976        0.118      344.363       21.128      861.601
06/05/2013  00:23:00      -45.182       27.592       -4.371       10.939       17.175        9.480      119.661      294.966       89.863        0.166        0.025       52.941        7.057        0.018      344.109       20.694      861.594
06/05/2013  00:24:00      -66.132      -12.663       -8.829       18.585       23.158       12.366      345.410      536.274      152.921        0.282        0.052       67.334       11.431        0.029      344.205       20.858      861.595
06/05/2013  00:25:00      -58.346      -36.947       -9.176       15.534        8.375        5.924      241.290       70.145       35.091        0.260        0.017       69.060        3.046        0.002      344.329       21.071      861.607
06/05/2013  00:26:00      -70.876      -18.177      -13.485       15.474       12.162        5.296      239.434      147.925       28.044        0.298        0.021       73.170        4.182        0.003      344.543       21.437      861.615
06/05/2013  00:27:00      -56.013      -45.119      -11.563       16.217       15.867        9.845      262.978      251.746       96.917        0.296        0.031       71.925        8.082        0.013      345.079       22.352      861.605
06/05/2013  00:28:00      -37.394      -34.594       -3.003       19.276       17.966        9.579      371.562      322.779       91.752        0.169        0.039       50.942       12.495        0.060      344.835       21.937      861.604
06/05/2013  00:29:00      -50.577        1.142       -5.014       18.837       11.879        7.288      354.816      141.114       53.111        0.157        0.027       50.590        5.693        0.013      344.495       21.354      861.601
06/05/2013  00:30:00      -81.281        4.442       -9.211        5.782        9.711        5.675       33.436       94.312       32.210        0.344        0.008       81.403        2.474        0.001      344.346       21.100      861.590
06/05/2013  00:31:00      -77.575      -16.178       -6.837       12.144       15.761        7.881      147.488      248.403       62.112        0.339        0.023       79.244        5.743        0.005      344.285       20.996      861.591
06/05/2013  00:32:00      -66.388      -45.827      -11.145       20.310       16.989       11.633      412.498      288.631      135.328        0.373        0.042       80.669       10.251        0.016      344.499       21.361      861.605
06/05/2013  00:33:00      -44.611      -62.670        1.085       22.642       26.719       14.914      512.654      713.923      222.439        0.368        0.072       76.927       16.259        0.045      344.851       21.962      861.607
06/05/2013  00:34:00      -65.856      -20.381       -8.179       13.807       35.171       10.297      190.623     1236.976      106.030        0.318        0.077       68.937        5.083        0.005      344.602       21.537      861.617
06/05/2013  00:35:00       -1.788      -26.775       -7.569       25.483       13.762       12.768      649.404      189.380      163.020        0.089        0.050       26.835        7.695        0.082      345.135       22.450      861.632
06/05/2013  00:36:00      -17.644      -25.745       -4.088       19.468       26.867        9.999      379.011      721.834       99.975        0.110        0.060       31.211        7.043        0.051      344.949       22.131      861.621
06/05/2013  00:37:00      -14.514       -1.739      -12.724       40.852       27.679       17.066     1668.854      766.143      291.256        0.155        0.136       14.618       18.764        1.648      344.967       22.162      861.610
06/05/2013  00:38:00     -123.196      -83.459       -0.963       38.520       31.749       19.682     1483.772     1008.003      387.389        1.251        0.144      148.804       10.888        0.005      344.263       20.959      861.620
06/05/2013  00:39:00      -44.206     -113.588      -10.121       60.783       45.493       29.377     3694.586     2069.576      862.984        1.079        0.331      121.887       10.121        0.007      345.291       22.719      861.611
06/05/2013  00:40:00      -32.674      -59.994        4.586       43.729       50.900       34.843     1912.194     2590.859     1214.056        0.520        0.286       68.314       22.534        0.109      345.120       22.424      861.597
06/05/2013  00:41:00     -118.333      -35.057        4.752       79.382       48.254       25.036     6301.536     2328.484      626.787        1.225        0.463      123.417       26.550        0.046      345.142       22.461      861.602
06/05/2013  00:42:00     -123.971      -43.507        0.957       40.483       24.993       17.410     1638.846      624.631      303.099        0.991        0.128      131.384       18.865        0.021      345.353       22.822      861.613
06/05/2013  00:43:00      -32.136      -11.178        8.821       60.670       32.001       17.404     3680.886     1024.060      302.898        0.312        0.250       34.024       16.628        0.239      345.329       22.783      861.613
06/05/2013  00:44:00       26.083       59.889        1.503       18.851       32.668       27.671      355.343     1067.221      765.670        0.323        0.109       65.322       11.241        0.030      345.417       22.932      861.621
06/05/2013  00:45:00       51.890       54.726       10.598       28.143       34.375       26.248      792.050     1181.615      688.944        0.423        0.133       75.415       13.942        0.034      344.927       22.094      861.619
06/05/2013  00:46:00       18.107        0.094       17.051       35.464       20.831       18.219     1257.665      433.934      331.926        0.132        0.101       18.107       22.223        1.506      344.231       20.903      861.634
06/05/2013  00:47:00      -31.580      -21.372       -2.004       27.672       25.558       14.932      765.750      653.227      222.962        0.155        0.082       38.132       10.522        0.076      344.307       21.033      861.651
06/05/2013  00:48:00      -68.740      -30.379       -6.910       18.130       17.062        9.892      328.710      291.121       97.860        0.321        0.036       75.154       10.712        0.020      344.264       20.961      861.666
06/05/2013  00:49:00      -50.644      -39.851       -6.611       18.952       15.065        9.758      359.165      226.965       95.224        0.244        0.034       64.443        8.557        0.018      344.363       21.130      861.668
06/05/2013  00:50:00      -41.788      -52.111      -15.274       22.052       15.019       18.322      486.296      225.576      335.708        0.287        0.052       66.796       13.119        0.039      344.615       21.559      861.670
06/05/2013  00:51:00      -88.327      -14.047      -14.870       11.168       26.682        8.119      124.721      711.915       65.922        0.456        0.045       89.437        4.553        0.003      344.417       21.221      861.669
06/05/2013  00:52:00     -105.838      -19.037      -16.770       20.096       20.192       10.792      403.852      407.728      116.463        0.639        0.046      107.537        8.861        0.007      344.251       20.939      861.686
06/05/2013  00:53:00      -98.929      -21.661      -14.940       18.730       17.965       12.085      350.817      322.730      146.054        0.565        0.041      101.272        9.246        0.008      344.197       20.845      861.689
06/05/2013  00:54:00      -65.432      -41.728      -11.996       16.024       15.348       10.304      256.769      235.572      106.171        0.338        0.030       77.605        7.146        0.008      344.194       20.839      861.689
06/05/2013  00:55:00      -50.705      -51.017      -16.978       14.209       16.066       10.263      201.888      258.118      105.320        0.301        0.028       71.929        9.069        0.016      344.366       21.135      861.686
06/05/2013  00:56:00      -96.899      -48.529      -16.361       20.105       12.406        9.479      404.226      153.899       89.861        0.633        0.032      108.372        6.986        0.004      344.266       20.962      861.695
06/05/2013  00:57:00      -67.462      -40.555      -11.468       29.624       17.068       11.766      877.611      291.308      138.445        0.382        0.065       78.713        7.087        0.008      344.202       20.853      861.701
06/05/2013  00:58:00     -103.904      -29.685      -12.692       26.006       18.161       13.490      676.289      329.834      181.991        0.651        0.059      108.061       14.076        0.017      344.063       20.618      861.705
06/05/2013  00:59:00      -30.391      -53.943       -4.319       43.304       20.556       14.307     1875.203      422.553      204.688        0.318        0.125       61.915       14.134        0.052      343.977       20.469      861.712
06/05/2013  01:00:00       23.298      -34.267       -0.142       30.343       31.579       13.879      920.693      997.253      192.633        0.191        0.106       41.437       12.056        0.085      344.013       20.530      861.696
06/05/2013  01:01:00      -34.638       26.453        2.509       27.060       35.944       16.051      732.261     1291.970      257.648        0.209        0.114       43.583       10.607        0.059      343.935       20.398      861.701
06/05/2013  01:02:00      -76.499      -27.832      -15.777       12.710       20.909        7.200      161.536      437.206       51.841        0.376        0.033       81.405        4.624        0.003      344.105       20.687      861.707
06/05/2013  01:03:00      -91.043      -30.590        6.640       77.617       32.471       23.191     6024.332     1054.349      537.842        0.844        0.381       96.045       36.525        0.145      344.118       20.710      861.700
06/05/2013  01:04:00       56.081       20.977       13.741       18.166       26.386       22.154      329.988      696.233      490.804        0.265        0.076       59.876       17.752        0.088      344.026       20.552      861.689
06/05/2013  01:05:00      -18.535      -26.006       -3.449       32.145       17.394       15.555     1033.328      302.557      241.960        0.130        0.079       31.935        8.952        0.079      344.796       21.868      861.680
06/05/2013  01:06:00       -0.929       69.125        3.571       25.993       50.997       25.089      675.644     2600.736      629.469        0.435        0.195       69.131       25.958        0.141      344.357       21.119      861.684
06/05/2013  01:07:00       11.805       52.247       -5.409       20.178       23.159       15.619      407.134      536.323      243.948        0.204        0.059       53.564       13.854        0.067      344.187       20.828      861.697
06/05/2013  01:08:00       -0.564       64.882      -16.945       31.506       37.992       23.124      992.617     1443.402      534.711        0.373        0.149       64.885       22.720        0.123      345.002       22.222      861.698
06/05/2013  01:09:00      -66.395       46.741      -12.135       31.521       28.638       16.453      993.597      820.159      270.713        0.441        0.104       81.198       15.631        0.037      344.590       21.519      861.690
06/05/2013  01:10:00      -40.372       90.789      -13.823       32.751       48.979       24.960     1072.618     2398.912      622.999        0.708        0.205       99.361       24.866        0.063      345.164       22.498      861.683
06/05/2013  01:11:00     -113.348       24.651      -22.059       35.822       21.765       18.411     1283.211      473.704      338.963        0.802        0.105      115.997       19.287        0.028      344.100       20.680      861.691
06/05/2013  01:12:00     -129.739        6.263      -13.623       55.541       36.326       21.573     3084.843     1319.601      465.409        1.096        0.243      129.890       25.856        0.040      344.018       20.540      861.701
06/05/2013  01:13:00     -100.848      -46.981       -5.417       15.418       24.853       14.661      237.712      617.655      214.936        0.674        0.054      111.254       10.395        0.009      343.982       20.477      861.703
06/05/2013  01:14:00      -51.340      -25.755        3.235       32.484       22.275       12.045     1055.195      496.163      145.090        0.250        0.085       57.438       14.261        0.062      343.856       20.261      861.704
06/05/2013  01:15:00      -55.832      -12.468       -6.858       21.471       10.891       10.687      460.997      118.603      114.204        0.201        0.035       57.208       10.573        0.034      343.783       20.137      861.711
06/05/2013  01:16:00      -76.226      -49.623       -3.432       30.309       22.641       16.663      918.654      512.613      277.651        0.500        0.085       90.955       10.013        0.012      343.757       20.093      861.733
06/05/2013  01:17:00      -70.792      -54.582        9.487       60.497       30.940       29.859     3659.947      957.262      891.567        0.679        0.275       89.390       31.064        0.121      343.731       20.050      861.744
06/05/2013  01:18:00      -53.404      -24.864       -1.252       22.065       32.276       21.421      486.847     1041.723      458.879        0.273        0.099       58.908       15.922        0.073      343.718       20.027      861.748
06/05/2013  01:19:00      -17.079      -23.166       19.137       32.383       32.544       21.573     1048.681     1059.111      465.381        0.188        0.129       28.781       18.376        0.408      343.665       19.937      861.751
06/05/2013  01:20:00      -79.480      -49.941        1.277       65.220       35.795       26.946     4253.683     1281.266      726.075        0.754        0.313       93.868       20.413        0.047      343.653       19.916      861.774
06/05/2013  01:21:00     -117.517      -89.929       -8.558       60.257       37.155       33.654     3630.879     1380.486     1132.559        1.406        0.307      147.977       35.705        0.058      343.542       19.727      861.783
06/05/2013  01:22:00      -51.740      -22.461       14.531       66.294       37.179       31.419     4394.936     1382.245      987.183        0.508        0.338       56.405       23.659        0.176      343.358       19.414      861.790
06/05/2013  01:23:00      -15.451      -19.326        9.082       44.113       37.010       25.808     1945.926     1369.711      666.034        0.234        0.199       24.743       22.184        0.804      343.352       19.403      861.796
06/05/2013  01:24:00      -31.851      -37.913       11.169       59.468       41.832       23.889     3536.394     1749.952      570.673        0.422        0.293       49.516       24.257        0.240      343.331       19.367      861.802
06/05/2013  01:25:00      -36.624      -41.096       -3.302       42.607       36.302       19.477     1815.333     1317.826      379.363        0.328        0.176       55.047        9.610        0.030      343.297       19.311      861.798
06/05/2013  01:26:00      -34.420      -50.143        8.033       52.354       48.764       35.003     2740.915     2377.918     1225.226        0.505        0.317       60.820       30.563        0.253      343.311       19.333      861.800
06/05/2013  01:27:00      -20.251      -70.468        1.705       31.695       36.517       28.095     1004.569     1333.463      789.332        0.425        0.156       73.320       18.761        0.065      343.546       19.733      861.806
06/05/2013  01:28:00      -19.027       -8.359       -1.030       24.124       25.248       14.691      581.976      637.446      215.826        0.093        0.072       20.782       15.492        0.556      343.478       19.618      861.819
06/05/2013  01:29:00      -36.134      -25.423        5.808       35.742       32.368       20.919     1277.468     1047.675      437.589        0.237        0.138       44.181       17.373        0.155      343.386       19.462      861.826
06/05/2013  01:30:00       -3.337      -14.051        8.975       32.572       15.636       13.615     1060.907      244.488      185.361        0.089        0.075       14.441       14.888        1.063      343.380       19.453      861.841
06/05/2013  01:31:00       -1.040      -21.919       -6.099       11.442       11.360        9.152      130.920      129.054       83.761        0.043        0.017       21.943        5.703        0.068      343.389       19.468      861.855
06/05/2013  01:32:00      -75.848      -25.697       -5.130       24.551       20.121       12.776      602.746      404.870      163.227        0.380        0.059       80.083       11.731        0.021      343.380       19.450      861.856
06/05/2013  01:33:00     -120.197      -49.368      -15.945       17.211       19.911       15.645      296.234      396.440      244.761        0.904        0.047      129.940        4.583        0.001      343.355       19.409      861.858
06/05/2013  01:34:00     -109.733      -35.528      -12.685       18.260       19.934       14.107      333.438      397.355      199.003        0.720        0.046      115.341        9.165        0.006      343.294       19.302      861.870
06/05/2013  01:35:00     -120.007      -21.391      -15.654       18.769       14.413       15.177      352.275      207.735      230.355        0.795        0.040      121.898        8.831        0.005      343.299       19.314      861.872
06/05/2013  01:36:00     -104.989      -19.219      -16.004       23.314       22.234       17.992      543.554      494.370      323.697        0.650        0.068      106.734       15.575        0.021      343.272       19.267      861.880
06/05/2013  01:37:00     -128.501      -43.073       -7.520       33.366       26.817       16.608     1113.294      719.154      275.811        1.027        0.105      135.528       16.144        0.014      343.214       19.169      861.893
06/05/2013  01:38:00      -97.781      -59.669       -3.166       62.153       38.553       21.569     3862.992     1486.343      465.227        0.947        0.291      114.549       23.146        0.041      343.139       19.041      861.900
06/05/2013  01:39:00     -145.783      -85.950       -4.230       36.626       27.757       20.216     1341.439      770.438      408.684        1.559        0.126      169.233       14.588        0.007      343.237       19.206      861.901
06/05/2013  01:40:00     -155.963      -70.993       -2.009       38.083       28.523       22.966     1450.300      813.584      527.420        1.608        0.140      171.360       22.784        0.018      343.194       19.133      861.913
06/05/2013  01:41:00     -127.189      -22.712       -9.156       35.952       34.104       21.017     1292.559     1163.069      441.698        0.984        0.145      129.201       20.469        0.025      343.082       18.943      861.927
06/05/2013  01:42:00     -130.752      -27.725       -2.850       45.321       32.322       22.366     2053.970     1044.722      500.235        1.074        0.180      133.659       24.204        0.033      342.904       18.640      861.921
06/05/2013  01:43:00     -113.300      -33.222       -1.747       51.360       33.225       18.869     2637.865     1103.895      356.021        0.902        0.205      118.070       15.895        0.018      342.844       18.537      861.914
06/05/2013  01:44:00     -103.082      -43.493       -4.120       57.498       35.870       20.234     3305.988     1286.654      409.419        0.877        0.250      111.882       22.465        0.040      342.893       18.622      861.909
06/05/2013  01:45:00     -143.761      -41.683       -5.806       44.427       33.325       18.958     1973.741     1110.560      359.400        1.294        0.172      149.682       19.639        0.017      342.909       18.650      861.901
06/05/2013  01:46:00     -117.616      -27.705      -11.194       39.826       38.869       21.637     1586.103     1510.792      468.145        0.915        0.178      120.835       13.756        0.013      342.871       18.582      861.898
06/05/2013  01:47:00      -89.618      -51.923        2.449       52.520       23.728       22.245     2758.300      563.038      494.844        0.727        0.191      103.573       24.744        0.057      342.876       18.592      861.897
06/05/2013  01:48:00     -146.515      -56.180      -11.816       22.569       21.833       13.638      509.375      476.700      185.997        1.297        0.059      156.917       10.835        0.005      342.901       18.636      861.884
06/05/2013  01:49:00     -114.425      -31.022       -9.574       26.302       19.334       18.064      691.787      373.787      326.300        0.777        0.070      118.556       16.495        0.019      342.898       18.629      861.879
06/05/2013  01:50:00     -108.625      -36.208       -2.210       29.835       22.067       18.617      890.116      486.952      346.583        0.742        0.086      114.501       16.930        0.022      342.888       18.613      861.868
06/05/2013  01:51:00      -68.887      -39.642       -6.772       29.996       23.487       18.041      899.762      551.661      325.489        0.407        0.089       79.479       11.949        0.023      342.777       18.424      861.865
06/05/2013  01:52:00      -32.406      -36.535      -21.083       26.419       27.390       14.752      697.979      750.185      217.631        0.225        0.083       48.836        6.200        0.016      342.740       18.360      861.882
06/05/2013  01:53:00      -42.480      -46.937      -11.091       55.025       33.419       27.099     3027.805     1116.802      734.361        0.450        0.244       63.306       20.749        0.107      342.746       18.371      861.877
06/05/2013  01:54:00      -66.792      -38.267      -16.112       38.504       25.998       19.904     1482.566      675.899      396.162        0.437        0.128       76.977       12.181        0.025      342.586       18.098      861.874
06/05/2013  01:55:00      -85.373      -33.604      -30.752       29.558       28.522       17.599      873.683      813.523      309.725        0.568        0.100       91.748        7.243        0.006      342.686       18.269      861.880
06/05/2013  01:56:00      -82.044      -67.754      -16.914       31.373       28.558       23.695      984.294      815.547      561.468        0.698        0.118      106.404       11.744        0.012      342.598       18.120      861.880
06/05/2013  01:57:00      -95.316      -47.191       -8.952       27.149       27.302       19.008      737.060      745.423      361.288        0.662        0.092      106.359       16.547        0.024      342.506       17.963      861.890
06/05/2013  01:58:00     -111.329      -46.380       -9.306       29.861       19.363       17.456      891.667      374.928      304.726        0.810        0.079      120.604       11.990        0.010      342.491       17.938      861.896
06/05/2013  01:59:00      -61.948      -53.720        2.411       65.594       27.087       25.871     4302.579      733.703      669.325        0.622        0.285       81.996       32.585        0.158      342.571       18.074      861.897
06/05/2013  02:00:00      -71.262      -47.401        0.088       24.061       28.587       18.569      578.939      817.213      344.797        0.453        0.087       85.587       13.726        0.026      342.528       18.003      861.901
06/05/2013  02:01:00      -74.403      -29.799       -6.283       14.725       17.241       12.807      216.820      297.263      164.026        0.357        0.034       80.149        8.278        0.011      342.680       18.258      861.901
06/05/2013  02:02:00      -90.223      -40.344      -20.908       14.604       13.356       10.309      213.289      178.389      106.277        0.535        0.025       98.832        2.400        0.001      342.681       18.260      861.898
06/05/2013  02:03:00     -121.181      -68.560       -4.234       19.498       17.357       15.823      380.188      301.280      250.383        1.017        0.047      139.231       13.136        0.009      342.686       18.270      861.898
06/05/2013  02:04:00     -139.237      -76.017       -4.168       33.455       30.331       18.927     1119.263      919.997      358.218        1.379        0.120      158.636       18.841        0.014      342.600       18.124      861.900
06/05/2013  02:05:00     -129.685      -53.431       -6.019       28.949       22.233       13.688      838.024      494.312      187.373        1.061        0.076      140.261       13.458        0.009      342.539       18.018      861.911
06/05/2013  02:06:00      -93.739      -46.976        6.304       36.544       32.318       20.826     1335.439     1044.476      433.711        0.692        0.141      104.851       19.527        0.035      342.571       18.075      861.922
06/05/2013  02:07:00     -110.530      -59.545       -0.594       28.822       28.055       16.905      830.726      787.093      285.765        0.883        0.095      125.549       15.645        0.016      342.661       18.226      861.930
06/05/2013  02:08:00     -100.192      -52.025       -0.251       29.898       27.361       20.408      893.918      748.623      416.485        0.740        0.103      112.893       14.299        0.016      342.595       18.114      861.937
06/05/2013  02:09:00      -34.715      -41.894        1.377       34.535       21.412       15.924     1192.699      458.490      253.587        0.243        0.095       54.408       20.197        0.138      342.666       18.235      861.941
06/05/2013  02:10:00      -43.359      -33.398        8.473       34.646       22.606       18.439     1200.342      511.017      339.993        0.256        0.103       54.730       19.706        0.130      342.717       18.321      861.959
06/05/2013  02:11:00      -71.212      -35.589       -3.538       25.641       17.792       12.091      657.441      316.560      146.203        0.373        0.056       79.610       11.918        0.022      342.703       18.296      861.965
06/05/2013  02:12:00      -60.349      -29.627      -12.861        9.762        6.589        6.003       95.295       43.409       36.035        0.243        0.009       67.230        3.990        0.004      342.696       18.284      861.973
06/05/2013  02:13:00      -64.034      -22.687       -9.658        5.719       12.616        7.015       32.704      159.172       49.206        0.247        0.012       67.934        3.669        0.003      342.739       18.357      861.977
06/05/2013  02:14:00      -80.317      -34.524       -9.124       19.176       17.722        9.119      367.710      314.065       83.157        0.425        0.038       87.422        7.982        0.008      342.738       18.355      861.973
06/05/2013  02:15:00      -90.373      -52.536       -7.695       15.846       12.270       10.944      251.087      150.551      119.779        0.575        0.026      104.534        6.221        0.004      342.661       18.227      861.991
06/05/2013  02:16:00      -81.240      -27.602      -10.903       11.844       15.378       10.950      140.270      236.468      119.904        0.399        0.025       85.801        6.963        0.007      342.656       18.217      861.989
06/05/2013  02:17:00     -101.912      -43.611      -11.185       15.930        8.340        6.292      253.752       69.563       39.595        0.639        0.018      110.852        2.947        0.001      342.726       18.336      861.977
06/05/2013  02:18:00     -129.192      -36.837      -16.884        9.488       13.694        8.544       90.028      187.519       73.001        0.934        0.018      134.341        2.860        0.000      342.586       18.100      861.978
06/05/2013  02:19:00     -110.805      -46.188      -11.210       10.931       13.116       10.830      119.492      172.021      117.287        0.747        0.020      120.046        7.196        0.004      342.573       18.078      861.970
06/05/2013  02:20:00     -127.840      -35.071      -11.080       23.182       17.314       16.142      537.414      299.769      260.553        0.940        0.055      132.564       13.957        0.011      342.512       17.973      861.981
06/05/2013  02:21:00     -136.838      -42.515      -16.401       22.677       21.958       15.576      514.251      482.138      242.620        1.102        0.062      143.290       11.421        0.006      342.424       17.823      861.984
06/05/2013  02:22:00     -141.511      -18.980      -16.130       25.542       27.504       18.248      652.397      756.484      332.990        1.119        0.087      142.778       15.040        0.011      342.346       17.693      861.986
06/05/2013  02:23:00     -105.160      -47.853       -9.508       36.053       32.226       19.691     1299.843     1038.519      387.744        0.808        0.136      115.536       17.229        0.022      342.280       17.579      862.004
06/05/2013  02:24:00      -40.750      -62.525        1.589       36.359       31.175       28.074     1321.942      971.871      788.125        0.433        0.154       74.632       23.474        0.099      342.285       17.587      862.004
06/05/2013  02:25:00      -60.794      -39.419        2.372       31.614       20.639       18.501      999.447      425.953      342.303        0.351        0.088       72.455       17.706        0.060      342.269       17.560      862.013
06/05/2013  02:26:00      -17.572      -17.983        4.262       33.821       17.044       12.613     1143.843      290.484      159.096        0.112        0.080       25.143       11.177        0.198      342.388       17.763      862.021
06/05/2013  02:27:00      -43.105      -25.882        2.901       36.910       17.805       17.368     1362.344      317.031      301.644        0.226        0.099       50.278       19.693        0.153      342.430       17.836      862.013
06/05/2013  02:28:00      -55.057      -36.751       -0.930       57.627       19.222       16.874     3320.861      369.484      284.747        0.418        0.199       66.196       24.910        0.142      342.377       17.745      862.009
06/05/2013  02:29:00      -98.314      -60.851        0.091       42.534       34.232       23.599     1809.104     1171.805      556.904        0.845        0.177      115.622       23.354        0.041      342.321       17.649      862.015
06/05/2013  02:30:00     -117.747      -90.216       -4.010       48.517       37.503       25.741     2353.945     1406.484      662.609        1.322        0.221      148.335       22.524        0.023      342.352       17.701      862.009
06/05/2013  02:31:00     -131.094      -86.169        5.291       50.510       43.353       27.013     2551.287     1879.481      729.687        1.490        0.258      156.878       30.695        0.038      342.345       17.689      862.007
06/05/2013  02:32:00     -115.286      -97.412        3.040       51.223       39.626       27.264     2623.763     1570.206      743.335        1.386        0.247      150.930       29.071        0.037      342.324       17.654      862.007
06/05/2013  02:33:00      -72.199      -70.184        4.767       45.217       36.632       22.407     2044.607     1341.940      502.053        0.702        0.194      100.691       18.280        0.033      342.265       17.553      862.004
06/05/2013  02:34:00      -45.556      -59.590       11.613       54.856       35.727       25.559     3009.219     1276.385      653.253        0.535        0.247       75.009       32.129        0.183      342.264       17.551      862.015
06/05/2013  02:35:00      -38.236      -41.112        8.508       41.290       29.306       20.102     1704.838      858.844      404.078        0.310        0.148       56.144       14.724        0.069      342.349       17.696      862.013
06/05/2013  02:36:00      -44.097      -56.171       12.000       53.783       34.913       24.403     2892.607     1218.911      595.486        0.497        0.235       71.413       28.173        0.156      342.299       17.612      862.016
06/05/2013  02:37:00      -54.432      -55.411       10.659       54.912       41.543       26.445     3015.287     1725.845      699.323        0.579        0.272       77.673       29.118        0.141      342.297       17.608      862.025
06/05/2013  02:38:00      -94.422      -86.812        2.598       50.075       42.754       25.438     2507.465     1827.869      647.093        1.072        0.249      128.265       24.541        0.037      342.327       17.658      862.035
06/05/2013  02:39:00      -95.046      -62.674        9.910       44.689       55.728       25.646     1997.094     3105.560      657.736        0.941        0.288      113.850       31.617        0.077      342.309       17.628      862.038
06/05/2013  02:40:00      -92.745      -79.522        2.173       38.885       33.191       23.974     1512.081     1101.637      574.758        0.906        0.159      122.170       22.304        0.033      342.322       17.650      862.045
06/05/2013  02:41:00      -43.488      -54.057        8.982       45.036       38.170       22.489     2028.284     1456.961      505.764        0.444        0.200       69.378       21.091        0.092      342.300       17.613      862.048
06/05/2013  02:42:00      -68.070      -60.315        8.197       55.245       39.223       25.941     3052.055     1538.436      672.916        0.680        0.263       90.947       30.245        0.111      342.120       17.307      862.052
06/05/2013  02:43:00      -54.271      -57.325       13.131       40.275       44.709       25.517     1622.073     1998.874      651.107        0.534        0.214       78.940       19.441        0.061      342.058       17.204      862.053
06/05/2013  02:44:00      -74.853      -46.380        2.582       42.413       36.783       26.663     1798.841     1352.960      710.900        0.581        0.193       88.057       20.845        0.056      342.121       17.308      862.046
06/05/2013  02:45:00     -114.553      -68.919        1.219       36.275       26.249       18.860     1315.863      688.984      355.713        1.012        0.118      133.687       20.014        0.022      342.140       17.341      862.047
06/05/2013  02:46:00      -95.470      -67.513       -2.164       29.842       27.921       17.505      890.516      779.600      306.431        0.783        0.099      116.929       13.370        0.013      342.162       17.377      862.043
06/05/2013  02:47:00     -112.808      -50.167       -2.242       31.904       21.137       19.129     1017.854      446.791      365.937        0.854        0.092      123.459       14.722        0.014      342.152       17.362      862.048
06/05/2013  02:48:00     -145.046      -46.246      -12.194       28.841       20.999       16.578      831.828      440.944      274.840        1.244        0.077      152.240       12.844        0.007      342.119       17.306      862.056
06/05/2013  02:49:00     -146.814      -31.771      -15.813        9.949       11.709        8.553       98.978      137.097       73.149        1.156        0.015      150.213        6.828        0.002      342.117       17.303      862.045
06/05/2013  02:50:00     -100.720      -20.986       -7.225       29.621       19.166       16.204      877.433      367.323      262.562        0.607        0.075      102.883       13.427        0.017      342.137       17.336      862.047
06/05/2013  02:51:00      -86.030       -0.190       -1.978       29.650       26.637       18.094      879.119      709.509      327.400        0.466        0.096       86.030       15.730        0.033      342.055       17.196      862.047
06/05/2013  02:52:00      -96.062      -52.481       -4.464       26.180       20.334       15.078      685.368      413.469      227.344        0.666        0.066      109.463        8.805        0.006      342.143       17.347      862.041
06/05/2013  02:53:00     -104.683      -59.252      -10.094       19.928       21.936       16.001      397.121      481.173      256.034        0.785        0.057      120.289       11.040        0.008      342.055       17.198      862.049
06/05/2013  02:54:00      -94.398      -48.849       -6.997       27.566       20.461       18.285      759.911      418.663      334.358        0.643        0.076      106.288       17.661        0.028      341.987       17.083      862.049
06/05/2013  02:55:00      -71.438      -47.856       -1.945       23.978       20.899       17.854      574.940      436.767      318.753        0.436        0.067       85.986       13.999        0.027      342.011       17.123      862.039
06/05/2013  02:56:00      -25.093      -25.303        9.846       33.719       19.006       17.941     1136.969      361.211      321.876        0.159        0.091       35.635       15.989        0.201      342.024       17.145      862.044
06/05/2013  02:57:00      -22.171      -37.923       11.388       37.962       29.628       20.824     1441.079      877.823      433.643        0.241        0.138       43.929       22.780        0.269      342.118       17.304      862.046
06/05/2013  02:58:00      -81.667     -101.794       -3.724       39.707       37.300       22.633     1576.618     1391.273      512.265        1.026        0.174      130.505       22.569        0.030      341.972       17.056      862.052
06/05/2013  02:59:00     -111.465      -70.650      -11.117       43.277       37.367       32.258     1872.941     1396.302     1040.576        1.092        0.215      131.969       19.654        0.022      341.991       17.088      862.058
06/05/2013  03:00:00     -158.282      -93.130       -7.517       48.585       44.964       33.257     2360.481     2021.792     1106.044        1.963        0.274      183.647       22.840        0.015      342.012       17.121      862.064
06/05/2013  03:01:00     -156.266      -96.920        0.835       57.051       46.421       35.307     3254.865     2154.942     1246.566        2.023        0.333      183.881       33.763        0.034      342.008       17.115      862.061
06/05/2013  03:02:00     -131.105      -94.277       -1.142       62.181       45.450       32.015     3866.415     2065.723     1024.957        1.652        0.348      161.483       31.625        0.038      341.939       17.000      862.076
06/05/2013  03:03:00     -154.349      -99.794       -4.570       63.330       34.755       28.072     4010.741     1207.926      788.058        1.990        0.300      183.800       27.861        0.023      341.986       17.077      862.081
06/05/2013  03:04:00      -93.418      -81.343       10.861       59.199       41.234       26.097     3504.538     1700.242      681.072        1.067        0.294      123.870       28.528        0.053      341.940       17.003      862.096
06/05/2013  03:05:00      -76.555      -73.523        7.655       57.621       37.937       25.675     3320.230     1439.212      659.198        0.837        0.271      106.143       30.200        0.081      341.947       17.015      862.112
06/05/2013  03:06:00      -66.762      -67.050        3.858       54.013       32.966       27.243     2917.428     1086.742      742.181        0.686        0.237       94.620       31.029        0.108      341.957       17.031      862.124
06/05/2013  03:07:00      -87.526      -72.333       -0.131       45.746       30.272       17.252     2092.721      916.395      297.638        0.810        0.165      113.547       15.553        0.019      342.093       17.263      862.136
06/05/2013  03:08:00      -88.646      -51.418        2.167       43.321       21.631       18.766     1876.672      467.886      352.174        0.660        0.135      102.479       20.803        0.041      342.056       17.201      862.137
06/05/2013  03:09:00      -45.637      -53.533        8.523       41.286       28.449       22.068     1704.527      809.327      486.983        0.401        0.150       70.345       23.943        0.116      342.023       17.143      862.140
06/05/2013  03:10:00      -64.517      -58.212        4.876       31.483       28.232       19.710      991.158      797.027      388.498        0.488        0.109       86.897       20.170        0.054      342.025       17.145      862.147
06/05/2013  03:11:00      -78.767      -61.689       -4.605       28.042       20.152       15.588      786.364      406.123      242.985        0.573        0.072      100.049       11.821        0.014      342.052       17.192      862.169
06/05/2013  03:12:00      -35.514      -54.119        3.690       27.277       25.873       23.612      744.028      669.432      557.544        0.309        0.099       64.731       20.462        0.100      342.003       17.109      862.178
06/05/2013  03:13:00      -22.139      -58.209        3.715       43.425       33.297       25.388     1885.739     1108.718      644.575        0.376        0.182       62.277       29.664        0.227      341.973       17.059      862.195
06/05/2013  03:14:00      -34.002      -38.305        3.189       33.820       25.339       20.513     1143.760      642.054      420.777        0.242        0.110       51.219       18.338        0.128      341.947       17.013      862.208
06/05/2013  03:15:00      -38.478      -31.537        6.455       27.769       25.605       19.228      771.109      655.627      369.703        0.216        0.090       49.751       15.864        0.102      341.921       16.970      862.201
06/05/2013  03:16:00      -49.189      -40.511        7.930       38.160       23.741       18.308     1456.162      563.630      335.174        0.324        0.118       63.724       13.649        0.046      341.896       16.927      862.204
06/05/2013  03:17:00      -42.628      -39.082        5.823       34.688       29.103       19.880     1203.281      846.972      395.204        0.291        0.122       57.833       19.432        0.113      341.879       16.898      862.215
06/05/2013  03:18:00      -36.650      -36.295        5.972       40.966       25.623       21.187     1678.175      656.522      448.896        0.274        0.139       51.580       21.437        0.173      341.841       16.834      862.218
06/05/2013  03:19:00      -22.368      -40.993        9.628       32.672       21.495       20.447     1067.474      462.029      418.067        0.211        0.097       46.698       19.556        0.175      341.882       16.903      862.238
06/05/2013  03:20:00      -36.048      -68.741       -0.900       41.774       35.402       22.986     1745.062     1253.294      528.347        0.478        0.176       77.620       20.039        0.067      341.857       16.860      862.244
06/05/2013  03:21:00      -67.251      -63.160       -1.049       42.011       28.932       27.544     1764.958      837.037      758.697        0.594        0.168       92.260       19.686        0.046      341.824       16.804      862.249
06/05/2013  03:22:00     -100.401      -66.268       -1.887       36.565       28.545       22.002     1336.979      814.789      484.099        0.856        0.132      120.299       20.238        0.028      341.862       16.867      862.262
06/05/2013  03:23:00     -137.113      -83.345       -1.233       45.519       40.484       23.649     2071.994     1638.922      559.270        1.501        0.214      160.457       21.568        0.018      341.786       16.740      862.256
06/05/2013  03:24:00     -121.673      -90.981        5.823       59.855       49.120       31.312     3582.622     2412.810      980.437        1.504        0.349      151.927       34.287        0.051      341.692       16.580      862.253
06/05/2013  03:25:00     -147.200      -90.493       -2.041       46.519       45.396       29.213     2164.028     2060.831      853.397        1.747        0.254      172.791       25.788        0.022      341.705       16.601      862.257
06/05/2013  03:26:00     -105.364      -77.523        1.783       46.820       37.255       26.305     2192.129     1387.952      691.972        1.069        0.214      130.811       26.444        0.041      341.664       16.533      862.255
06/05/2013  03:27:00     -102.363      -70.436       -2.380       48.267       25.446       18.495     2329.737      647.488      342.053        0.938        0.166      124.255       20.393        0.027      341.682       16.565      862.253
06/05/2013  03:28:00      -67.283      -53.734       -0.288       44.095       31.127       22.535     1944.365      968.887      507.817        0.542        0.171       86.106       19.624        0.052      341.692       16.583      862.252
06/05/2013  03:29:00      -51.627      -38.859        4.880       52.329       27.012       23.032     2738.316      729.643      530.468        0.410        0.200       64.617       24.244        0.141      341.683       16.566      862.264
06/05/2013  03:30:00      -91.948      -67.790        2.746       26.006       22.726       17.369      676.291      516.459      301.685        0.728        0.075      114.236       14.540        0.016      341.719       16.627      862.258
06/05/2013  03:31:00     -110.509      -44.422       -6.454       40.704       30.869       20.113     1656.785      952.891      404.526        0.862        0.151      119.103       21.354        0.032      341.698       16.592      862.246
06/05/2013  03:32:00     -146.609      -20.780       -8.649       35.471       28.765       21.242     1258.191      827.440      451.235        1.227        0.127      148.074       20.220        0.019      341.660       16.526      862.258
06/05/2013  03:33:00     -145.904      -90.853        1.654       40.834       34.276       23.678     1667.440     1174.839      560.646        1.647        0.170      171.878       18.955        0.012      341.605       16.433      862.245
06/05/2013  03:34:00     -139.645      -60.884       -5.459       36.225       36.275       21.457     1312.286     1315.870      460.385        1.316        0.154      152.341       18.335        0.014      341.528       16.303      862.244
06/05/2013  03:35:00     -135.343      -48.577       -3.051       41.522       39.688       21.891     1724.107     1575.133      479.209        1.223        0.189      143.797       19.038        0.018      341.486       16.232      862.239
06/05/2013  03:36:00     -140.042      -34.276       -3.138       47.941       36.497       26.255     2298.335     1332.030      689.333        1.256        0.216      144.175       26.354        0.033      341.405       16.095      862.234
06/05/2013  03:37:00     -124.830      -42.197       -0.790       55.925       36.246       23.868     3127.631     1313.742      569.692        1.119        0.251      131.769       24.856        0.036      341.405       16.096      862.240
06/05/2013  03:38:00     -106.333      -42.352        0.248       30.914       32.135       15.870      955.657     1032.648      251.847        0.767        0.112      114.457       10.060        0.008      341.397       16.080      862.251
06/05/2013  03:39:00      -96.587      -56.195       -4.826       22.299       25.147       16.801      497.250      632.364      282.289        0.696        0.071      111.745       14.363        0.017      341.368       16.033      862.255
06/05/2013  03:40:00      -97.243      -34.657       -5.872       30.544       34.390       19.335      932.911     1182.650      373.848        0.659        0.124      103.234       17.590        0.029      341.414       16.109      862.257
06/05/2013  03:41:00     -142.028      -18.844      -22.428       23.949       16.508       16.792      573.575      272.529      281.965        1.108        0.056      143.273       13.590        0.009      341.453       16.176      862.270
06/05/2013  03:42:00     -137.950      -29.161       -8.879       36.832       26.790       21.501     1356.568      717.710      462.300        1.125        0.127      140.998       21.237        0.023      341.458       16.184      862.269
06/05/2013  03:43:00     -147.930      -28.896       -7.580       38.709       36.315       22.015     1498.363     1318.794      484.641        1.304        0.165      150.726       14.825        0.010      341.509       16.271      862.266
06/05/2013  03:44:00      -90.224      -11.613       -3.414       36.172       43.295       28.201     1308.429     1874.500      795.299        0.613        0.199       90.968       25.820        0.081      341.476       16.216      862.270
06/05/2013  03:45:00     -122.145      -42.622      -11.941       27.588       33.408       20.975      761.115     1116.125      439.937        0.960        0.116      129.367       13.475        0.011      341.499       16.254      862.266
06/05/2013  03:46:00     -132.844      -40.543       -4.499       62.663       42.169       23.836     3926.640     1778.196      568.169        1.279        0.314      138.893       32.975        0.056      341.466       16.197      862.266
06/05/2013  03:47:00     -122.262      -23.784      -10.409       30.499       34.891       24.610      930.196     1217.385      605.635        0.919        0.138      124.554       18.484        0.022      341.466       16.197      862.274
06/05/2013  03:48:00     -177.288       -3.847      -15.419       32.444       29.845       20.646     1052.638      890.702      426.269        1.703        0.118      177.330       18.091        0.010      341.396       16.079      862.271
06/05/2013  03:49:00     -131.569      -32.852        5.710       52.832       38.948       24.892     2791.204     1516.923      619.618        1.167        0.246      135.609       23.730        0.031      341.383       16.057      862.271
06/05/2013  03:50:00     -194.415      -22.738      -15.175       42.983       39.976       22.826     1847.512     1598.063      521.034        2.125        0.198      195.740       20.865        0.011      341.379       16.051      862.289
06/05/2013  03:51:00     -169.360      -24.264      -10.377       63.213       37.874       30.247     3995.930     1434.449      914.905        1.786        0.317      171.089       33.142        0.038      341.343       15.988      862.292
06/05/2013  03:52:00     -187.401       -8.740      -16.638       46.038       29.888       26.843     2119.497      893.289      720.528        1.960        0.187      187.604       28.575        0.023      341.384       16.057      862.279
06/05/2013  03:53:00     -148.783      -21.628       -5.480       55.948       36.979       24.928     3130.157     1367.474      621.401        1.388        0.256      150.347       26.248        0.030      341.372       16.038      862.284
06/05/2013  03:54:00     -119.095      -21.092       -0.475       52.850       32.953       24.024     2793.163     1085.913      577.157        0.954        0.223      120.948       28.355        0.055      341.320       15.951      862.282
06/05/2013  03:55:00     -135.852      -39.109       -3.833       30.088       25.732       18.446      905.317      662.111      340.241        1.095        0.095      141.369       16.540        0.014      341.386       16.064      862.272
06/05/2013  03:56:00     -104.911      -19.238       -3.178       37.909       34.696       21.471     1437.074     1203.831      461.015        0.724        0.155      106.661       20.849        0.038      341.369       16.034      862.271
06/05/2013  03:57:00      -92.020      -43.284        4.071       42.022       37.221       21.058     1765.813     1385.391      443.449        0.698        0.180      101.692       23.173        0.052      341.329       15.966      862.270
06/05/2013  03:58:00     -113.960      -46.831        4.298       55.125       43.773       21.759     3038.783     1916.088      473.474        1.031        0.271      123.207       25.874        0.044      341.351       16.004      862.263
06/05/2013  03:59:00     -124.720      -50.905       -2.881       35.990       33.343       22.242     1295.266     1111.751      494.696        1.053        0.145      134.708       10.195        0.006      341.355       16.009      862.261
06/05/2013  04:00:00     -138.241      -70.627       -7.249       34.554       37.875       23.888     1194.011     1434.518      570.645        1.367        0.160      155.238       20.792        0.018      341.334       15.975      862.272
06/05/2013  04:01:00     -129.558      -57.238      -14.246       25.644       33.654       18.615      657.609     1132.575      346.511        1.120        0.107      141.638        9.460        0.004      341.406       16.097      862.268
06/05/2013  04:02:00      -93.187      -49.767       -1.633       51.088       33.065       21.914     2609.947     1093.297      480.245        0.767        0.209      105.644       22.396        0.045      341.329       15.965      862.278
06/05/2013  04:03:00      -55.777      -26.098        4.046       59.467       35.682       22.710     3536.283     1273.227      515.728        0.457        0.266       61.581       23.795        0.149      341.326       15.962      862.300
06/05/2013  04:04:00      -26.638      -17.139        9.813       31.058       24.525       25.986      964.584      601.458      675.253        0.167        0.112       31.675       12.925        0.167      341.388       16.064      862.309
06/05/2013  04:05:00       10.396      -40.033        4.488       29.832       24.996       20.977      889.921      624.815      440.036        0.184        0.098       41.361       11.916        0.083      341.448       16.166      862.337
06/05/2013  04:06:00       -5.465      -26.802        8.084       25.875       23.717       20.274      669.536      562.484      411.036        0.123        0.082       27.353       12.626        0.213      341.450       16.169      862.362
06/05/2013  04:07:00      -21.313      -48.922       -4.015       23.877       25.803       14.619      570.121      665.799      213.707        0.216        0.072       53.363       16.246        0.093      341.571       16.375      862.372
06/05/2013  04:08:00      -24.468      -19.360       10.811       39.029       23.567       16.956     1523.239      555.389      287.496        0.173        0.118       31.201       18.729        0.360      341.472       16.208      862.392
06/05/2013  04:09:00      -40.508      -63.582       -2.271       52.406       43.859       20.301     2746.439     1923.595      412.133        0.538        0.254       75.390       19.002        0.064      341.411       16.104      862.404
06/05/2013  04:10:00      -27.790      -53.284        9.347       47.726       27.760       23.275     2277.802      770.620      541.737        0.364        0.180       60.096       23.115        0.148      341.444       16.160      862.407
06/05/2013  04:11:00      -10.317      -62.724        2.835       48.332       38.532       28.084     2335.955     1484.688      788.698        0.433        0.230       63.567       22.832        0.129      341.382       16.056      862.411
06/05/2013  04:12:00      -41.058      -48.264       14.976       44.546       31.466       26.878     1984.325      990.138      722.421        0.397        0.185       63.365       16.501        0.068      341.412       16.106      862.433
06/05/2013  04:13:00      -84.301      -76.536       -0.344       63.528       44.739       30.500     4035.752     2001.611      930.267        0.996        0.348      113.861       25.458        0.050      341.356       16.012      862.431
06/05/2013  04:14:00     -135.147     -121.867       -2.837       47.098       45.090       24.995     2218.188     2033.077      624.762        1.900        0.244      181.979       20.733        0.013      341.332       15.971      862.427
06/05/2013  04:15:00     -135.101     -117.481       -4.359       49.461       45.582       30.217     2446.412     2077.754      913.071        1.875        0.272      179.037       20.334        0.013      341.371       16.035      862.429
06/05/2013  04:16:00     -115.308      -99.833       -4.019       44.488       33.310       28.469     1979.215     1109.525      810.464        1.359        0.195      152.520       28.635        0.035      341.285       15.892      862.452
06/05/2013  04:17:00     -109.341      -83.401      -10.592       30.450       32.780       19.087      927.182     1074.551      364.324        1.069        0.118      137.517       10.876        0.006      341.323       15.955      862.459
06/05/2013  04:18:00      -70.768      -58.835        0.687       49.797       36.996       27.937     2479.722     1368.723      780.461        0.655        0.231       92.030       20.650        0.050      341.291       15.902      862.471
06/05/2013  04:19:00      -94.687      -73.373        4.093       55.129       30.418       24.939     3039.171      925.255      621.947        0.948        0.229      119.788       13.408        0.013      341.286       15.893      862.483
06/05/2013  04:20:00     -112.567      -97.210       -8.197       44.695       44.653       23.382     1997.652     1993.866      546.738        1.336        0.227      148.732       13.324        0.008      341.275       15.876      862.491
06/05/2013  04:21:00     -116.401      -98.974      -12.600       58.302       47.238       35.544     3399.074     2231.405     1263.360        1.520        0.345      152.791       28.996        0.036      341.206       15.759      862.483
06/05/2013  04:22:00     -133.123     -101.542       -6.666       37.167       35.188       24.067     1381.403     1238.199      579.206        1.564        0.160      167.429       18.297        0.012      341.223       15.785      862.469
06/05/2013  04:23:00      -83.168      -44.880        1.728       39.129       22.478       18.317     1531.056      505.258      335.514        0.565        0.119       94.504       19.037        0.041      341.202       15.752      862.474
06/05/2013  04:24:00      -99.463      -29.555        0.268       19.389       17.821       12.915      375.918      317.583      166.786        0.581        0.043      103.761       10.905        0.011      341.237       15.810      862.475
06/05/2013  04:25:00      -65.077      -14.766       -3.751       24.459       25.739       13.214      598.238      662.519      174.611        0.295        0.072       66.732       12.628        0.036      341.242       15.818      862.476
06/05/2013  04:26:00      -75.647       19.157       -2.368       28.153       23.311       17.501      792.617      543.392      306.293        0.387        0.082       78.035       15.635        0.040      341.152       15.668      862.483
06/05/2013  04:27:00     -107.783       -4.211       -9.978       21.950       21.700       12.429      481.817      470.887      154.488        0.642        0.055      107.865       12.003        0.012      341.201       15.751      862.502
06/05/2013  04:28:00     -130.937      -53.442      -10.488       31.819       38.495       19.197     1012.480     1481.871      368.526        1.149        0.143      141.424       16.244        0.013      341.231       15.801      862.506
06/05/2013  04:29:00      -51.611      -31.755        3.976       39.461       24.057       22.510     1557.132      578.729      506.691        0.316        0.132       60.598       20.173        0.111      341.159       15.679      862.512
06/05/2013  04:30:00      -64.441      -30.016       -2.807       47.405       18.181       16.932     2247.212      330.535      286.709        0.396        0.143       71.089       22.557        0.101      341.259       15.849      862.521
06/05/2013  04:31:00       13.389      -16.095       17.290       18.960       20.117       13.483      359.471      404.711      181.778        0.084        0.047       20.936        8.370        0.160      341.179       15.711      862.534
06/05/2013  04:32:00      -37.559      -34.570        2.600       29.957       15.432       15.680      897.415      238.143      245.877        0.200        0.069       51.047       14.064        0.076      341.130       15.628      862.541
06/05/2013  04:33:00      -18.331      -34.055        6.602       30.345       16.568       16.824      920.825      274.502      283.045        0.151        0.074       38.675       15.173        0.154      341.196       15.742      862.551
06/05/2013  04:34:00      -57.930      -57.852       -4.688       27.735       19.317       20.112      769.239      373.139      404.478        0.414        0.077       81.871       14.713        0.032      341.234       15.806      862.563
06/05/2013  04:35:00     -100.041      -66.970       -5.696       22.572       19.208       15.350      509.484      368.959      235.618        0.782        0.056      120.387        5.820        0.002      341.222       15.785      862.560
06/05/2013  04:36:00     -104.102      -47.248        1.804       29.878       25.484       14.088      892.715      649.441      198.466        0.741        0.087      114.322       10.055        0.008      341.250       15.833      862.546
06/05/2013  04:37:00     -110.998      -59.351       -6.078       29.150       17.547       14.934      849.701      307.894      223.030        0.863        0.069      125.870       10.554        0.007      341.236       15.809      862.546
06/05/2013  04:38:00     -112.169      -45.588       -0.903       27.929       15.685       12.651      780.029      246.030      160.047        0.792        0.059      121.079       14.263        0.014      341.120       15.611      862.548
06/05/2013  04:39:00      -97.548      -41.169       -6.729       15.805       12.913       10.045      249.808      166.758      100.901        0.589        0.026      105.879        7.750        0.005      341.109       15.594      862.534
06/05/2013  04:40:00      -76.170      -46.784       -4.328       24.588       19.360       12.762      604.584      374.805      162.862        0.458        0.057       89.390        8.636        0.009      341.123       15.617      862.524
06/05/2013  04:41:00      -98.805      -51.015       -3.381       21.908       15.470       13.394      479.976      239.323      179.395        0.664        0.045      111.198       12.778        0.013      341.085       15.552      862.519
06/05/2013  04:42:00     -107.123       -8.215       -8.833       23.623       20.693       14.862      558.058      428.183      220.893        0.641        0.060      107.438       12.862        0.014      341.045       15.485      862.518
06/05/2013  04:43:00      -98.279      -15.697       -6.089       31.238       27.511       19.973      975.809      756.874      398.931        0.604        0.107       99.524       15.907        0.026      340.890       15.223      862.504
06/05/2013  04:44:00     -122.418      -15.242      -11.786       31.178       23.350       18.438      972.066      545.201      339.958        0.861        0.093      123.363       15.674        0.016      340.802       15.074      862.499
06/05/2013  04:45:00     -105.913      -48.319       -6.125       27.885       21.393       16.285      777.550      457.659      265.211        0.754        0.075      116.414        9.333        0.006      340.851       15.157      862.506
06/05/2013  04:46:00     -114.539      -60.027      -12.611       13.453       25.929       13.696      180.989      672.316      187.593        0.896        0.052      129.315        9.701        0.006      340.842       15.142      862.512
06/05/2013  04:47:00      -90.988      -17.807       -2.571       31.923       20.477       15.660     1019.050      419.303      245.229        0.514        0.084       92.714       17.561        0.036      340.797       15.066      862.510
06/05/2013  04:48:00      -62.588      -26.332        1.708       25.111       21.339       13.456      630.550      455.346      181.061        0.294        0.063       67.902       11.226        0.027      340.785       15.046      862.518
06/05/2013  04:49:00      -82.591      -46.703       -1.089       29.166       17.294       15.126      850.666      299.071      228.805        0.519        0.069       94.881       12.465        0.017      340.880       15.208      862.521
06/05/2013  04:50:00      -59.975      -44.477       -2.279       20.041       18.194       12.345      401.627      331.010      152.403        0.323        0.044       74.668       11.531        0.024      340.896       15.233      862.525
06/05/2013  04:51:00      -50.263      -36.135        1.461       25.514       17.903       16.186      650.987      320.531      261.999        0.253        0.062       61.904       14.900        0.058      340.870       15.189      862.520
06/05/2013  04:52:00      -60.970      -33.967       -2.265       25.663       16.821       15.218      658.565      282.963      231.586        0.302        0.059       69.794       11.192        0.026      340.880       15.206      862.518
06/05/2013  04:53:00      -77.792      -46.426       -4.882       20.024       11.342       11.005      400.974      128.642      121.104        0.444        0.033       90.592        6.978        0.006      340.905       15.248      862.527
06/05/2013  04:54:00      -81.484      -52.747       -5.523       18.095       12.982       14.358      327.437      168.531      206.157        0.508        0.035       97.066       12.386        0.016      340.905       15.248      862.532
06/05/2013  04:55:00      -77.962      -51.416       -5.533       19.910       12.758       11.510      396.397      162.775      132.487        0.472        0.035       93.390        7.267        0.006      340.895       15.231      862.531
06/05/2013  04:56:00      -61.139      -41.630       -3.176       22.481       19.670       15.303      505.399      386.900      234.179        0.330        0.056       73.966       13.662        0.034      340.891       15.224      862.546
06/05/2013  04:57:00      -38.578      -38.828        7.320       25.638       23.252       15.239      657.299      540.641      232.214        0.224        0.072       54.735       12.706        0.054      340.876       15.200      862.559
06/05/2013  04:58:00      -33.481      -31.760        2.115       20.828       12.263       15.043      433.793      150.376      226.305        0.147        0.041       46.148       13.842        0.090      340.925       15.282      862.563
06/05/2013  04:59:00      -75.209      -28.467       -1.382       22.735       10.958        9.345      516.859      120.075       87.338        0.360        0.036       80.416        8.547        0.011      340.939       15.307      862.560
06/05/2013  05:00:00      -99.913      -36.823      -11.843        8.156       10.887        7.689       66.519      118.520       59.124        0.586        0.012      106.483        4.294        0.002      340.924       15.280      862.579
06/05/2013  05:01:00      -91.858      -31.930      -12.179       11.418       10.943        7.839      130.365      119.746       61.453        0.496        0.016       97.249        4.567        0.002      340.855       15.163      862.587
06/05/2013  05:02:00      -88.723      -33.145      -11.535        8.648       10.779        7.456       74.787      116.178       55.591        0.467        0.012       94.712        4.265        0.002      340.819       15.103      862.596
06/05/2013  05:03:00      -74.746      -33.619       -3.573       11.046       10.114        8.424      122.016      102.283       70.968        0.351        0.015       81.959        4.420        0.003      340.832       15.125      862.610
06/05/2013  05:04:00      -83.534      -30.633       -4.084       11.886       17.314        8.470      141.275      299.780       71.748        0.422        0.026       88.974        7.070        0.006      340.849       15.154      862.620
06/05/2013  05:05:00     -103.487      -36.362      -11.087       12.556       12.583        9.291      157.660      158.331       86.321        0.628        0.020      109.690        7.038        0.004      340.782       15.040      862.625
06/05/2013  05:06:00     -107.217      -39.963       -8.228        9.016       13.878        7.945       81.292      192.612       63.127        0.675        0.017      114.422        4.199        0.001      340.748       14.983      862.626
06/05/2013  05:07:00     -108.598      -33.860      -11.377        8.398        7.466        7.313       70.526       55.744       53.485        0.662        0.009      113.754        3.610        0.001      340.724       14.943      862.628
06/05/2013  05:08:00     -102.260      -35.061       -7.079        6.747        7.781        6.507       45.529       60.539       42.344        0.594        0.007      108.104        2.526        0.001      340.713       14.924      862.639
06/05/2013  05:09:00      -73.172      -36.758       -3.974       11.177       11.187        8.197      124.916      125.154       67.189        0.352        0.016       81.885        4.864        0.004      340.759       15.001      862.644
06/05/2013  05:10:00      -60.695      -28.541       -3.891       11.765       12.652        8.590      138.411      160.071       73.792        0.244        0.019       67.071        6.043        0.008      340.816       15.098      862.639
06/05/2013  05:11:00      -51.285      -29.296       -6.984       24.199       11.223        8.723      585.594      125.958       76.093        0.216        0.039       59.063        8.720        0.022      340.775       15.027      862.642
06/05/2013  05:12:00      -86.734      -20.335      -11.740       10.549        9.592       11.343      111.292       91.997      128.654        0.420        0.017       89.085        8.182        0.008      340.824       15.113      862.647
06/05/2013  05:13:00      -84.959      -11.562      -13.540       14.990       13.470       14.316      224.690      181.433      204.947        0.407        0.031       85.742       12.818        0.022      340.722       14.939      862.634
06/05/2013  05:14:00      -94.678      -31.705      -11.392       16.603       14.253        9.912      275.645      203.143       98.255        0.534        0.029       99.846        5.896        0.003      340.746       14.978      862.625
06/05/2013  05:15:00     -101.706      -23.906       -9.447       17.194       17.021       11.296      295.632      289.703      127.591        0.586        0.036      104.478        5.838        0.003      340.662       14.838      862.626
06/05/2013  05:16:00      -88.337      -41.639      -14.170       17.831       16.252       11.090      317.934      264.123      122.980        0.522        0.035       97.659        9.686        0.010      340.592       14.721      862.634
06/05/2013  05:17:00      -96.121      -57.972       -8.175       17.569       20.599       12.548      308.684      424.311      157.455        0.678        0.045      112.249        8.630        0.006      340.519       14.596      862.631
06/05/2013  05:18:00     -108.152      -30.653       -7.312       13.991       14.220        9.324      195.745      202.214       86.931        0.659        0.024      112.412        5.420        0.002      340.568       14.680      862.634
06/05/2013  05:19:00     -106.269      -21.883       -9.634       15.265       16.258        7.908      233.005      264.313       62.530        0.621        0.028      108.499        5.814        0.003      340.685       14.877      862.640
06/05/2013  05:20:00     -115.910      -18.894      -12.927       16.424       13.401       12.784      269.760      179.595      163.423        0.729        0.031      117.439        9.968        0.007      340.712       14.922      862.639
06/05/2013  05:21:00      -94.605      -21.431       -6.249       28.463       19.539       17.439      810.116      381.791      304.132        0.547        0.075       97.002       15.405        0.025      340.655       14.825      862.634
06/05/2013  05:22:00     -122.332      -13.733      -13.420       15.915       12.852       11.236      253.282      165.176      126.237        0.794        0.027      123.101        9.828        0.006      340.553       14.652      862.636
06/05/2013  05:23:00      -85.130      -13.669       -9.913       25.978       16.417       16.194      674.864      269.518      262.236        0.437        0.060       86.221       14.822        0.030      340.589       14.715      862.648
06/05/2013  05:24:00      -39.927      -38.182        4.961       19.868       23.246       15.055      394.722      540.376      226.663        0.212        0.058       55.245        8.904        0.026      340.560       14.666      862.674
06/05/2013  05:25:00      -43.860      -32.620        1.363       32.131       19.427       13.758     1032.380      377.400      189.290        0.229        0.080       54.660       15.639        0.082      340.574       14.689      862.694
06/05/2013  05:26:00      -85.941      -51.737        0.088       22.102       19.014       13.384      488.509      361.544      179.139        0.555        0.051      100.313       11.483        0.013      340.541       14.633      862.698
06/05/2013  05:27:00      -58.556      -35.851        5.539       38.318       24.403       19.688     1468.282      595.525      387.598        0.360        0.123       68.660       18.209        0.070      340.535       14.623      862.712
06/05/2013  05:28:00     -108.014      -52.751        1.349       26.601       20.529       15.360      707.627      421.437      235.923        0.791        0.068      120.207       13.262        0.012      340.519       14.597      862.723
06/05/2013  05:29:00     -108.309      -53.097        1.838       26.856       19.868       15.443      721.249      394.725      238.498        0.795        0.068      120.623       15.559        0.017      340.511       14.581      862.725
06/05/2013  05:30:00     -100.510      -45.010        2.272       26.383       20.910       16.359      696.075      437.233      267.613        0.677        0.070      110.128       12.555        0.013      340.517       14.594      862.734
06/05/2013  05:31:00      -89.445      -66.213       -4.733       28.016       20.278       14.979      784.882      411.203      224.375        0.691        0.071      111.286       16.066        0.021      340.617       14.761      862.749
06/05/2013  05:32:00     -104.883      -81.241      -10.018       21.473       26.497       15.471      461.076      702.078      239.341        0.955        0.070      132.667       11.755        0.008      340.687       14.878      862.756
06/05/2013  05:33:00      -79.791      -57.797       -1.660       31.482       27.941       23.486      991.120      780.717      551.588        0.602        0.116       98.524       21.976        0.050      340.616       14.760      862.758
06/05/2013  05:34:00      -67.836      -58.562       -0.821       38.408       38.684       21.638     1475.170     1496.453      468.224        0.574        0.172       89.617       18.002        0.040      340.617       14.762      862.761
06/05/2013  05:35:00      -71.796      -68.446       -3.334       35.552       36.520       19.011     1263.980     1333.694      361.436        0.640        0.148       99.195       23.438        0.056      340.615       14.756      862.769
06/05/2013  05:36:00      -92.267      -41.378        4.107       39.931       20.921       19.757     1594.485      437.688      390.320        0.633        0.121      101.121       20.380        0.041      340.582       14.703      862.784
06/05/2013  05:37:00      -62.257      -31.469        0.800       36.273       23.566       20.843     1315.714      555.337      434.448        0.359        0.115       69.758       20.266        0.084      340.626       14.774      862.801
06/05/2013  05:38:00      -80.100      -63.032       -0.545       65.933       36.477       24.194     4347.215     1330.576      585.368        0.833        0.313      101.927       33.433        0.108      340.601       14.734      862.813
06/05/2013  05:39:00     -110.474      -67.936       -1.610       38.115       32.538       25.463     1452.775     1058.708      648.365        0.999        0.158      129.691       23.320        0.032      340.561       14.666      862.812
06/05/2013  05:40:00     -119.830      -98.735       -5.485       31.675       46.067       23.748     1003.307     2122.130      563.951        1.391        0.184      155.267       17.694        0.013      340.567       14.675      862.819
06/05/2013  05:41:00     -116.659      -82.579       -6.752       24.089       29.353       14.646      580.302      861.579      214.516        1.106        0.083      142.929        7.531        0.003      340.599       14.732      862.818
06/05/2013  05:42:00      -80.946      -54.124       -5.336       35.106       34.656       23.368     1232.437     1201.070      546.056        0.624        0.149       97.374       11.718        0.014      340.567       14.676      862.823
06/05/2013  05:43:00      -87.863      -47.936        0.565       31.592       25.612       13.618      998.077      655.988      185.454        0.593        0.092      100.089       10.682        0.011      340.563       14.671      862.830
06/05/2013  05:44:00     -100.781      -11.030      -12.861       12.971       10.407       10.736      168.247      108.307      115.259        0.542        0.020      101.383        5.459        0.003      340.553       14.655      862.832
06/05/2013  05:45:00      -81.208      -29.003      -14.405       13.313        8.843       10.062      177.226       78.204      101.238        0.400        0.018       86.232        5.935        0.005      340.550       14.650      862.838
06/05/2013  05:46:00     -109.752      -26.561      -16.802       16.637       10.488       10.803      276.795      109.997      116.703        0.677        0.025      112.920        7.084        0.004      340.579       14.697      862.842
06/05/2013  05:47:00     -132.046      -22.545      -25.348       17.129       12.521       10.111      293.420      156.778      102.226        0.957        0.028      133.957        5.750        0.002      340.544       14.637      862.847
06/05/2013  05:48:00     -146.821      -29.319      -12.640       14.691       15.527       15.586      215.829      241.096      242.925        1.164        0.035      149.720        9.667        0.004      340.524       14.602      862.858
06/05/2013  05:49:00     -117.455      -45.508       -1.804       29.941       20.802       17.426      896.479      432.739      303.676        0.875        0.082      125.963       15.404        0.015      340.502       14.566      862.862
06/05/2013  05:50:00      -87.181      -49.221       -7.364       24.731       18.815       14.613      611.644      354.005      213.542        0.563        0.059      100.117        9.944        0.010      340.488       14.544      862.869
06/05/2013  05:51:00      -83.392      -37.810       -5.797       15.324       17.643       10.052      234.833      311.263      101.035        0.453        0.032       91.563        8.406        0.008      340.458       14.492      862.888
06/05/2013  05:52:00      -87.003      -56.153       -4.220       18.041       16.358       15.353      325.488      267.594      235.707        0.578        0.041      103.550        9.573        0.009      340.523       14.603      862.907
06/05/2013  05:53:00      -61.361      -37.932       -0.000       25.404       18.714       17.611      645.361      350.218      310.153        0.325        0.065       72.138       13.260        0.034      340.513       14.585      862.916
06/05/2013  05:54:00      -59.212      -30.971       -6.495       31.099       20.244       15.534      967.170      409.823      241.297        0.306        0.081       66.823       16.149        0.058      340.465       14.506      862.931
06/05/2013  05:55:00      -55.500      -42.277        1.477       33.361       25.449       18.288     1112.930      647.649      334.435        0.348        0.105       69.768       22.217        0.101      340.512       14.584      862.943
06/05/2013  05:56:00      -93.595      -60.551       -1.775       30.003       24.933       18.541      900.177      621.675      343.751        0.715        0.093      111.474       10.567        0.009      340.483       14.534      862.949
06/05/2013  05:57:00      -82.010      -60.470        0.189       40.315       29.069       18.811     1625.271      844.995      353.868        0.660        0.141      101.893       17.301        0.029      340.513       14.585      862.955
06/05/2013  05:58:00      -70.929      -66.636       -6.713       29.925       35.886       23.385      895.497     1287.810      546.835        0.612        0.137       97.321       17.504        0.032      340.519       14.596      862.970
06/05/2013  05:59:00      -78.773      -62.995       -6.181       31.458       26.561       20.313      989.597      705.485      412.620        0.616        0.105      100.864       16.844        0.028      340.453       14.483      862.979
06/05/2013  06:00:00      -95.435      -25.340       -3.129       21.292       23.142       15.185      453.340      535.567      230.587        0.549        0.061       98.742       12.775        0.017      340.463       14.500      862.984
06/05/2013  06:01:00     -103.604      -49.352       -2.598       16.259       16.798       11.482      264.363      282.163      131.841        0.693        0.034      114.758        6.850        0.004      340.455       14.487      862.984
06/05/2013  06:02:00     -101.404      -35.496       -1.872       23.538       13.528       13.244      554.016      183.008      175.409        0.623        0.046      107.437       12.956        0.015      340.522       14.600      862.978
06/05/2013  06:03:00      -97.096      -44.408       -2.285       14.385       13.346       10.478      206.934      178.128      109.779        0.595        0.025      106.770        7.740        0.005      340.539       14.630      862.984
06/05/2013  06:04:00      -64.578      -49.233        3.663       43.475       31.238       21.793     1890.059      975.835      474.936        0.497        0.167       81.205       17.764        0.048      340.548       14.645      862.992
06/05/2013  06:05:00      -99.078      -94.027        1.197       48.767       39.660       29.358     2378.240     1572.912      861.868        1.174        0.241      136.593       31.178        0.052      340.550       14.648      863.002
06/05/2013  06:06:00     -125.680     -102.681        7.246       45.023       43.752       27.079     2027.097     1914.210      733.252        1.553        0.234      162.293       21.251        0.017      340.551       14.648      863.003
06/05/2013  06:07:00     -145.559     -101.278       -2.389       56.405       51.686       31.296     3181.508     2671.426      979.433        1.914        0.342      177.326       32.759        0.034      340.594       14.721      863.003
06/05/2013  06:08:00     -128.116     -113.816        1.348       56.390       49.624       30.110     3179.803     2462.569      906.629        1.796        0.327      171.370       28.663        0.028      340.530       14.613      863.015
06/05/2013  06:09:00     -146.640     -109.083      -14.821       38.336       30.716       24.447     1469.626      943.498      597.661        1.832        0.151      182.763       13.934        0.006      340.568       14.678      863.031
06/05/2013  06:10:00     -127.376     -122.308        1.924       62.196       47.666       36.834     3868.357     2272.036     1356.753        1.934        0.375      176.590       39.911        0.051      340.525       14.604      863.042
06/05/2013  06:11:00     -139.799     -126.084        1.636       64.598       47.957       40.147     4172.931     2299.864     1611.778        2.176        0.404      188.258       39.666        0.044      340.524       14.603      863.052
06/05/2013  06:12:00     -162.135     -109.753       -0.459       51.117       49.885       31.939     2612.901     2488.542     1020.071        2.223        0.306      195.790       29.608        0.023      340.533       14.616      863.064
06/05/2013  06:13:00     -111.477      -91.820        8.257       71.784       49.575       38.049     5152.971     2457.728     1447.755        1.499        0.453      144.423       40.345        0.078      340.547       14.641      863.074
06/05/2013  06:14:00      -98.900      -61.577       20.243       71.294       54.177       35.680     5082.858     2935.099     1273.030        1.163        0.465      116.503       34.991        0.090      340.550       14.647      863.070
06/05/2013  06:15:00      -89.707      -73.387        7.411       69.764       54.442       39.282     4866.970     2963.922     1543.081        1.143        0.469      115.901       38.919        0.113      340.567       14.678      863.077
06/05/2013  06:16:00     -129.603      -85.376       -0.035       65.643       41.896       34.179     4309.063     1755.259     1168.216        1.566        0.362      155.197       28.228        0.033      340.528       14.612      863.088
06/05/2013  06:17:00     -162.309     -124.165       -4.018       46.009       37.645       33.478     2116.819     1417.183     1120.781        2.322        0.233      204.355       27.703        0.018      340.489       14.543      863.098
06/05/2013  06:18:00     -153.975     -123.506      -11.919       49.490       44.199       32.182     2449.264     1953.572     1035.682        2.227        0.272      197.388       29.134        0.022      340.542       14.632      863.098
06/05/2013  06:19:00     -132.796      -86.950       -3.411       44.631       51.926       26.606     1991.936     2696.336      707.856        1.530        0.270      158.730       27.645        0.030      340.556       14.658      863.104
06/05/2013  06:20:00     -150.386      -93.373       -4.517       57.505       39.283       29.853     3306.806     1543.131      891.185        1.855        0.287      177.016       26.913        0.023      340.567       14.674      863.111
06/05/2013  06:21:00     -108.204     -103.649        2.019       67.788       55.903       33.267     4595.170     3125.114     1106.712        1.564        0.441      149.837       38.120        0.065      340.609       14.744      863.118
06/05/2013  06:22:00     -132.177      -85.560       -2.310       58.670       43.129       24.316     3442.221     1860.137      591.274        1.534        0.295      157.452       24.653        0.025      340.612       14.752      863.116
06/05/2013  06:23:00     -135.064      -99.428       -6.627       46.774       42.297       27.696     2187.796     1788.995      767.079        1.646        0.237      167.715       30.523        0.033      340.628       14.778      863.131
06/05/2013  06:24:00     -146.686     -103.169       -6.642       42.537       27.007       26.744     1809.422      729.366      715.252        1.773        0.163      179.334       24.804        0.019      340.608       14.745      863.137
06/05/2013  06:25:00     -133.867     -104.870       -3.529       51.909       32.467       26.562     2694.551     1054.136      705.552        1.669        0.223      170.053       27.738        0.027      340.577       14.692      863.134
06/05/2013  06:26:00     -110.752      -90.483        4.295       49.178       39.717       25.418     2418.505     1577.403      646.054        1.256        0.232      143.014       26.428        0.034      340.589       14.713      863.141
06/05/2013  06:27:00     -113.630      -94.159       -1.712       54.212       35.253       25.164     2938.957     1242.775      633.225        1.330        0.241      147.573       30.119        0.042      340.667       14.845      863.155
06/05/2013  06:28:00      -62.975      -74.762        6.137       52.827       47.377       32.055     2790.642     2244.615     1027.536        0.783        0.303       97.751       29.916        0.094      340.721       14.936      863.159
06/05/2013  06:29:00     -117.724      -88.587       -6.668       45.711       34.025       27.947     2089.471     1157.680      781.030        1.289        0.201      147.332       18.390        0.016      340.668       14.846      863.168
06/05/2013  06:30:00     -109.662      -96.052       -0.942       45.189       27.330       23.221     2042.065      746.939      539.214        1.229        0.166      145.779       21.946        0.023      340.707       14.913      863.180
06/05/2013  06:31:00      -85.953      -53.404        1.695       37.972       23.455       21.829     1441.862      550.130      476.505        0.636        0.123      101.192       16.140        0.025      340.769       15.017      863.183
06/05/2013  06:32:00      -73.228      -58.050       -2.018       45.173       36.853       20.667     2040.590     1358.134      427.141        0.628        0.191       93.446       27.052        0.084      340.857       15.167      863.186
06/05/2013  06:33:00      -95.259      -53.865       -2.297       35.217       25.501       15.849     1240.209      650.296      251.204        0.706        0.107      109.433       19.515        0.032      340.845       15.146      863.200
06/05/2013  06:34:00     -109.892      -47.409      -17.302       31.082       24.052       14.015      966.121      578.515      196.431        0.818        0.087      119.682       10.618        0.008      340.851       15.154      863.202
06/05/2013  06:35:00     -104.200      -36.281      -16.907       19.209       21.113       12.929      368.982      445.770      167.159        0.672        0.049      110.336        7.924        0.005      340.886       15.215      863.195
06/05/2013  06:36:00      -89.523      -37.421       -4.958       31.407       19.596       11.529      986.428      384.010      132.929        0.547        0.075       97.029       14.503        0.022      340.918       15.270      863.188
06/05/2013  06:37:00     -105.115      -44.375       -6.833       14.735       16.504        9.472      217.129      272.382       89.709        0.682        0.029      114.098        4.632        0.002      340.936       15.301      863.189
06/05/2013  06:38:00     -102.427      -38.426       -8.665       22.131       17.195       11.672      489.782      295.668      136.234        0.648        0.046      109.398        4.997        0.002      341.061       15.511      863.182
06/05/2013  06:39:00     -124.682      -27.365      -17.278       20.822       18.787       13.144      433.547      352.966      172.761        0.878        0.048      127.650        7.613        0.004      341.142       15.649      863.180
06/05/2013  06:40:00     -102.439       -3.986       -3.013       45.181       30.268       24.579     2041.322      916.127      604.140        0.704        0.178      102.517       27.663        0.073      341.188       15.727      863.182
06/05/2013  06:41:00     -123.459      -34.645      -10.600       23.252       15.547       17.346      540.674      241.716      300.894        0.882        0.054      128.228       15.682        0.015      341.216       15.775      863.177
06/05/2013  06:42:00     -130.685      -39.289      -13.606       11.954       15.935       11.689      142.909      253.915      136.623        0.967        0.027      136.463        3.902        0.001      341.159       15.680      863.172
06/05/2013  06:43:00     -111.078      -41.705       -3.691       29.040       30.909       19.268      843.302      955.352      371.248        0.813        0.108      118.649       17.482        0.022      341.211       15.766      863.166
06/05/2013  06:44:00     -107.149      -62.825       -3.154       28.273       22.730       15.314      799.349      516.676      234.509        0.849        0.078      124.209       17.003        0.019      341.260       15.850      863.166
06/05/2013  06:45:00      -92.355      -38.487       -1.709       30.875       21.496       12.460      953.243      462.059      155.246        0.579        0.079      100.054       14.644        0.021      341.295       15.909      863.160
06/05/2013  06:46:00      -72.486      -42.539       -2.000       30.804       22.463       16.870      948.897      504.594      284.581        0.440        0.087       84.046       16.478        0.038      341.352       16.005      863.159
06/05/2013  06:47:00      -31.869      -61.571        4.758       23.969       27.320       19.972      574.525      746.356      398.866        0.327        0.086       69.330       13.862        0.040      341.399       16.083      863.173
06/05/2013  06:48:00      -50.892      -58.415        1.680       28.623       22.217       20.336      819.253      493.573      413.567        0.387        0.086       77.475       18.703        0.058      341.430       16.137      863.181
06/05/2013  06:49:00      -57.455      -76.730        2.841       23.074       22.429       19.881      532.402      503.076      395.238        0.531        0.072       95.858       17.958        0.035      341.332       15.971      863.177
06/05/2013  06:50:00      -49.718      -59.990        3.799       35.545       25.741       23.163     1263.463      662.592      536.502        0.427        0.123       77.915       24.735        0.101      341.399       16.085      863.177
06/05/2013  06:51:00      -39.203      -47.941        3.589       25.106       23.905       15.619      630.298      571.436      243.951        0.265        0.072       61.929       14.691        0.056      341.519       16.288      863.178
06/05/2013  06:52:00      -54.953      -35.972        4.275       21.346       17.664       16.497      455.638      312.002      272.148        0.269        0.052       65.679       10.071        0.024      341.491       16.240      863.186
06/05/2013  06:53:00      -14.056      -33.640       -1.818       31.592       18.879       21.988      998.061      356.412      483.465        0.158        0.092       36.458       19.647        0.290      341.643       16.499      863.192
06/05/2013  06:54:00      -16.203      -27.672        9.795       25.718       22.942       16.445      661.419      526.350      270.430        0.129        0.073       32.067       14.336        0.200      341.807       16.777      863.206
06/05/2013  06:55:00      -11.004      -36.105       11.761       35.549       22.303       19.877     1263.719      497.423      395.109        0.186        0.108       37.745       21.258        0.317      341.651       16.511      863.210
06/05/2013  06:56:00      -44.757      -57.283       -0.414       25.430       19.978       16.351      646.700      399.129      267.357        0.330        0.066       72.695       11.345        0.024      341.553       16.345      863.214
06/05/2013  06:57:00      -27.694      -47.215        2.476       25.552       17.714       14.919      652.906      313.779      222.589        0.210        0.059       54.737       15.759        0.083      341.582       16.395      863.216
06/05/2013  06:58:00      -10.691      -15.583        9.746       19.833       18.503       18.681      393.363      342.344      348.969        0.077        0.054       18.898        9.868        0.273      341.934       16.990      863.225
06/05/2013  06:59:00      -35.267       -9.008        1.269       14.754        9.797       11.781      217.687       95.980      138.795        0.089        0.023       36.399        7.365        0.041      341.712       16.617      863.222
06/05/2013  07:00:00      -35.524       -4.908       -2.078       20.938       12.396       19.399      438.393      153.653      376.335        0.113        0.048       35.862        6.374        0.032      341.974       17.060      863.230
06/05/2013  07:01:00        8.653      -17.426       10.315       19.187       24.543       23.497      368.154      602.342      552.111        0.100        0.076       19.456       19.580        1.013      342.043       17.177      863.220
06/05/2013  07:02:00       14.527      -33.332       11.653       34.000       29.311       25.079     1156.001      859.106      628.961        0.205        0.132       36.360       22.807        0.393      341.964       17.044      863.226
06/05/2013  07:03:00      -32.073      -33.142        1.942       16.241       12.255       10.091      263.770      150.187      101.826        0.132        0.026       46.120        8.739        0.036      341.898       16.931      863.220
06/05/2013  07:04:00       -3.763      -25.732       -7.620       18.371       20.544       15.404      337.483      422.044      237.277        0.087        0.050       26.005        4.425        0.029      341.892       16.919      863.231
06/05/2013  07:05:00       -9.020       -9.985       -8.548       22.799       16.057       21.160      519.817      257.840      447.761        0.074        0.061       13.455       13.153        0.956      341.948       17.015      863.248
06/05/2013  07:06:00       -4.013       -2.113       -6.506       18.568       12.018       11.667      344.783      144.434      136.110        0.034        0.031        4.535        6.870        2.295      342.098       17.270      863.260
06/05/2013  07:07:00       -8.587       -7.249        2.766       16.017       14.797       17.812      256.548      218.963      317.278        0.046        0.040       11.238       13.046        1.348      342.342       17.685      863.270
06/05/2013  07:08:00      -34.042       -4.150      -10.650       10.283       10.307        9.088      105.738      106.241       82.586        0.079        0.015       34.294        3.484        0.010      341.898       16.930      863.263
06/05/2013  07:09:00       -7.395       -8.555      -19.373       46.747       19.638       18.455     2185.317      385.655      340.575        0.171        0.146       11.308       15.803        1.953      341.763       16.702      863.267
06/05/2013  07:10:00      -11.120       -5.431       17.036       10.302       14.900       18.642      106.141      222.012      347.515        0.056        0.034       12.375       10.173        0.676      342.611       18.143      863.264
06/05/2013  16:12:00      -38.254      -11.611       17.218       26.151       46.070       26.782      683.855     2122.409      717.283        0.271        0.176       39.977       24.282        0.369      350.634       31.943      860.410
06/05/2013  16:13:00      -66.723       45.493       11.127       56.328       41.311       29.227     3172.896     1706.612      854.208        0.619        0.287       80.757       27.054        0.112      350.383       31.508      860.395
06/05/2013  16:14:00      -65.456       68.867       -9.975       29.985       36.937       30.962      899.090     1364.351      958.620        0.617        0.161       95.011       21.921        0.053      350.279       31.327      860.399
06/05/2013  16:15:00      -28.010       77.446      -10.139       30.407       60.440       34.038      924.557     3653.040     1158.599        0.631        0.287       82.356       29.674        0.130      350.177       31.148      860.387
06/05/2013  16:16:00       -3.811       44.071        2.414       40.485       33.028       33.407     1639.023     1090.881     1116.042        0.290        0.192       44.236       17.099        0.149      350.240       31.258      860.370
06/05/2013  16:17:00      -97.271      132.496      -20.742       66.207       70.829       41.730     4383.401     5016.696     1741.403        1.929        0.557      164.368       44.518        0.073      350.252       31.278      860.344
06/05/2013  16:18:00        6.156       70.187       15.248       36.992       79.467       34.482     1368.437     6315.011     1189.035        0.703        0.444       70.457       33.709        0.229      350.185       31.161      860.331
06/05/2013  16:19:00       40.468      126.802       14.577       80.617       98.610       59.630     6499.135     9724.008     3555.784        1.885        0.989      133.103       59.544        0.200      350.185       31.161      860.311
06/05/2013  16:20:00       60.078      103.919        8.055      103.488       56.306       40.979    10709.697     3170.385     1679.247        1.501        0.778      120.035       46.682        0.151      350.379       31.499      860.278
06/05/2013  16:21:00      -17.588      106.397        4.807       36.934       64.805       34.705     1364.117     4199.652     1204.408        0.921        0.338      107.841       34.236        0.101      350.269       31.310      860.267
06/05/2013  16:22:00       -9.770       70.924        8.987       31.061       36.212       25.351      964.793     1311.289      642.682        0.406        0.146       71.593       18.684        0.068      350.469       31.658      860.255
06/05/2013  16:23:00      -17.746      119.296      -13.832       36.723       60.739       31.155     1348.576     3689.198      970.661        1.037        0.300      120.609       31.551        0.068      350.260       31.294      860.235
06/05/2013  16:24:00       32.547      170.050      -17.032       37.890       75.095       36.418     1435.629     5639.315     1326.304        1.933        0.420      173.137       42.019        0.059      350.333       31.418      860.228
06/05/2013  16:25:00       89.571      105.214        6.990       91.700       80.124       67.478     8408.853     6419.870     4553.225        1.926        0.969      138.177       57.110        0.171      350.408       31.550      860.215
06/05/2013  16:26:00      180.368      102.688       66.532      166.369       94.396       88.707    27678.718     8910.642     7868.897        4.597        2.223      207.552       40.611        0.038      350.369       31.480      860.175
06/05/2013  16:27:00      127.561      131.315      132.621       80.146       86.421       83.608     6423.308     7468.527     6990.268        3.599        1.044      183.072       57.562        0.099      349.858       30.591      860.206
06/05/2013  16:28:00       60.326       86.472       78.466       42.727       60.455       41.668     1825.596     3654.831     1736.188        1.224        0.361      105.435       20.434        0.038      349.604       30.153      860.236
06/05/2013  16:29:00       12.059       18.730      -10.608       61.322       57.383       27.580     3760.357     3292.821      760.629        0.421        0.391       22.276       25.696        1.331      349.887       30.646      860.237
06/05/2013  16:30:00      -52.756       20.859        9.597       52.349       48.880       20.894     2740.423     2389.238      436.546        0.444        0.278       56.730       16.731        0.087      350.292       31.351      860.215
06/05/2013  16:31:00       28.570      -15.758        0.434       38.882       36.681       21.614     1511.779     1345.484      467.185        0.219        0.166       32.627       13.942        0.183      349.356       29.725      860.220
06/05/2013  16:32:00       57.999       23.223       22.836       37.832       36.980       23.172     1431.265     1367.489      536.953        0.388        0.167       62.476       14.535        0.054      349.704       30.328      860.206
06/05/2013  16:33:00       35.625       -9.865       16.064       37.217       56.219       36.679     1385.110     3160.550     1345.328        0.376        0.295       36.966       37.658        1.038      349.527       30.021      860.201
06/05/2013  16:34:00       38.945      -22.170       15.196       57.938       85.543       44.964     3356.772     7317.630     2021.802        0.747        0.635       44.813       29.961        0.447      349.675       30.277      860.181
06/05/2013  16:35:00       65.550       46.165       46.502       52.511       49.813       39.621     2757.401     2481.375     1569.829        0.770        0.340       80.175       29.939        0.139      349.889       30.648      860.196
06/05/2013  16:36:00       59.699       27.281        6.464       42.899       42.489       27.421     1840.334     1805.296      751.898        0.437        0.220       65.637       15.774        0.058      349.951       30.756      860.205
06/05/2013  16:37:00      141.864       62.442       52.253       66.323       52.165       55.568     4398.781     2721.136     3087.805        1.848        0.510      154.998       30.966        0.040      349.966       30.782      860.177
06/05/2013  16:38:00       69.594        3.936       38.639       37.484       36.925       31.109     1405.022     1363.446      967.770        0.504        0.187       69.706       26.043        0.140      349.178       29.416      860.161
06/05/2013  16:39:00       79.241      -59.717        7.083       72.017       79.210       51.153     5186.423     6274.171     2616.611        1.198        0.704       99.223       49.033        0.244      349.574       30.102      860.120
06/05/2013  16:40:00       54.258      -83.262       69.812       90.020      173.859       91.783     8103.658    30227.050     8424.049        3.074        2.338       99.381       65.602        0.436      350.060       30.946      860.012
06/05/2013  16:41:00     -145.284      354.078      -36.616      131.580      138.516       73.267    17313.175    19186.547     5368.080        9.484        2.093      382.725       72.442        0.036      350.550       31.793      860.034
06/05/2013  16:42:00      -40.228      304.156      -30.126       84.402      129.855       49.598     7123.762    16862.322     2459.952        6.074        1.322      306.805       61.370        0.040      350.205       31.194      860.197
06/05/2013  16:43:00       46.367      256.977      -32.531       77.631      109.554       59.053     6026.542    12002.016     3487.303        4.538        1.076      261.127       63.068        0.058      350.038       30.907      860.210
06/05/2013  16:44:00       96.591      185.610      -20.195       58.933       72.938       49.016     3473.150     5319.939     2402.537        2.769        0.560      209.239       41.116        0.039      349.999       30.837      860.210
06/05/2013  16:45:00       54.857       56.594       21.786       67.470       60.282       35.176     4552.182     3633.864     1237.328        0.805        0.471       78.817       33.067        0.176      350.059       30.945      860.197
06/05/2013  16:46:00       31.956      171.003      -18.826       40.132       80.811       40.269     1610.557     6530.359     1621.618        2.019        0.488      173.963       50.343        0.084      350.100       31.013      860.180
06/05/2013  16:47:00       93.811       87.396       -1.501       50.410       50.853       44.171     2541.191     2585.979     1951.112        1.176        0.354      128.213       30.368        0.056      350.130       31.067      860.149
06/05/2013  16:48:00       24.296       41.254       -7.229       28.312       41.578       22.809      801.586     1728.732      520.265        0.270        0.153       47.877       23.998        0.251      349.901       30.670      860.134
06/05/2013  16:49:00       11.299      141.597      -13.139       82.605       61.557       33.108     6823.610     3789.213     1096.140        1.603        0.585      142.047       31.394        0.049      350.295       31.353      860.147
06/05/2013  16:50:00       41.187      364.063      -49.077       91.728      179.519       72.159     8414.082    32227.066     5206.943        9.124        2.292      366.386       98.581        0.072      350.226       31.232      860.121
06/05/2013  16:51:00       75.803      217.465       -2.106      121.549      108.899       73.713    14774.175    11859.096     5433.659        4.255        1.603      230.298       70.551        0.094      350.336       31.424      860.121
06/05/2013  16:52:00       86.434      166.490        3.602       99.183      129.074       77.549     9837.211    16660.120     6013.907        3.385        1.626      187.589       77.125        0.169      350.484       31.680      860.099
06/05/2013  16:53:00      -25.202      322.485      -47.594       66.875       90.618       39.091     4472.207     8211.571     1528.095        6.055        0.711      323.468       38.911        0.014      350.273       31.312      860.139
06/05/2013  16:54:00      -48.112      120.972       -7.059       85.355       83.702       49.437     7285.396     7005.987     2444.029        1.686        0.837      130.189       52.452        0.162      350.444       31.612      860.131
06/05/2013  16:55:00      -23.695      126.992      -22.265       55.351       74.366       39.263     3063.692     5530.252     1541.613        1.366        0.507      129.184       30.293        0.055      350.550       31.796      860.128
06/05/2013  16:56:00       92.128       65.001       10.913       86.801       51.314       37.367     7534.341     2633.104     1396.325        1.220        0.578      112.751       24.189        0.046      350.340       31.430      860.117
06/05/2013  16:57:00       -9.837      220.511      -19.267       72.899       82.410       44.503     5314.241     6791.481     1980.518        3.159        0.704      220.730       46.642        0.045      350.368       31.478      860.123
06/05/2013  16:58:00      -14.552      157.549      -15.859       76.068      105.217       37.635     5786.340    11070.572     1416.362        2.178        0.914      158.220       48.912        0.096      350.422       31.572      860.131
06/05/2013  16:59:00       21.328       20.342        1.665       38.962       49.878       28.605     1518.075     2487.786      818.220        0.285        0.241       29.473       26.320        0.797      350.675       32.015      860.136
06/05/2013  17:00:00       -0.016       59.093       -0.921       51.390       37.480       27.310     2640.927     1404.728      745.846        0.414        0.240       59.093       26.010        0.194      350.399       31.536      860.132
06/05/2013  17:01:00     -109.401       -4.762      -15.698       81.055       51.280       25.724     6569.891     2629.654      661.710        1.105        0.493      109.505       24.452        0.050      350.615       31.910      860.125
06/05/2013  17:02:00      -87.583       11.846        7.696       61.430       57.197       31.596     3773.593     3271.490      998.324        0.796        0.402       88.380       25.743        0.085      350.487       31.688      860.125
06/05/2013  17:03:00       -8.989       -8.983        7.971       77.852       37.080       28.280     6060.861     1374.939      799.747        0.423        0.412       12.708       16.467        1.679      350.030       30.893      860.121
06/05/2013  17:04:00       54.242       35.287       20.709       63.905       47.527       43.670     4083.893     2258.834     1907.083        0.643        0.412       64.709       16.918        0.068      349.983       30.811      860.096
06/05/2013  17:05:00       83.074       79.957       14.237       62.328       52.519       46.313     3884.755     2758.285     2144.895        1.114        0.439      115.301       37.340        0.105      350.211       31.207      860.089
06/05/2013  17:06:00       48.150       76.253       -6.099       30.754       42.330       25.483      945.816     1791.821      649.362        0.578        0.169       90.182       26.693        0.088      350.178       31.150      860.074
06/05/2013  17:07:00       43.215       51.648       -0.112       37.680       26.565       18.859     1419.764      705.723      355.672        0.351        0.124       67.343       15.781        0.055      350.262       31.295      860.057
06/05/2013  17:08:00       -7.168      115.293        9.709       60.176      102.452       39.506     3621.197    10496.384     1560.690        1.455        0.784      115.515       42.786        0.137      350.466       31.649      860.044
06/05/2013  17:09:00      161.065      151.481       20.052      106.572       77.701       59.316    11357.652     6037.390     3518.400        3.510        1.046      221.107       65.291        0.087      350.169       31.130      860.037
06/05/2013  17:10:00      132.382      109.016       -0.439       74.657       71.204       47.906     5573.664     5070.062     2294.979        2.117        0.647      171.492       31.233        0.033      350.230       31.239      860.032
06/05/2013  17:11:00      129.080       88.544        6.220       67.895       45.579       45.500     4609.711     2077.454     2070.279        1.665        0.438      156.530       22.931        0.021      350.169       31.133      860.022
06/05/2013  17:12:00      127.874      114.143        8.732      115.238       78.322       47.987    13279.867     6134.271     2302.751        2.558        1.086      171.407       40.226        0.055      350.289       31.341      860.014
06/05/2013  17:13:00       88.558      110.453        0.287       68.953       53.938       51.272     4754.491     2909.319     2628.792        1.517        0.515      141.571       32.856        0.054      350.228       31.237      860.008
06/05/2013  17:14:00      153.588      103.339       12.823       62.943       68.179       49.887     3961.845     4648.382     2488.713        2.276        0.555      185.117       50.812        0.075      350.231       31.240      860.005
06/05/2013  17:15:00      125.588       76.454       23.071       71.964       56.844       42.891     5178.762     3231.292     1839.625        1.620        0.512      147.029       33.321        0.051      350.312       31.381      860.003
06/05/2013  17:16:00       49.633       30.860       17.554       50.930       45.020       26.045     2593.822     2026.770      678.340        0.451        0.265       58.444       17.228        0.087      350.089       30.997      860.003
06/05/2013  17:17:00       -1.954       80.526       -7.858       22.376       36.090       16.381      500.666     1302.497      268.336        0.431        0.104       80.550       18.644        0.054      350.204       31.196      859.986
06/05/2013  17:18:00        5.900       67.808       -5.206       32.212       27.535       14.732     1037.587      758.176      217.034        0.334        0.101       68.064       10.983        0.026      350.163       31.125      859.963
06/05/2013  17:19:00       48.442       55.040       12.328       26.441       20.190       16.055      699.128      407.643      257.769        0.345        0.068       73.322       12.934        0.031      350.142       31.088      859.960
06/05/2013  17:20:00      145.129      119.121       16.436       88.015       65.738       51.006     7746.622     4321.502     2601.605        2.509        0.733      187.756       23.190        0.015      350.314       31.384      859.946
06/05/2013  17:21:00      160.250      147.288       24.203       72.951       49.372       54.553     5321.778     2437.582     2976.082        2.935        0.537      217.655       37.600        0.030      350.327       31.406      859.925
06/05/2013  17:22:00       44.439      111.888       -8.566       96.307       54.880       41.620     9275.004     3011.846     1732.258        1.429        0.701      120.390       38.010        0.100      350.440       31.605      859.921
06/05/2013  17:23:00      -29.171      284.990      -34.681      100.733      114.716       59.057    10147.105    13159.726     3487.787        5.503        1.340      286.479       53.381        0.035      350.499       31.705      859.930
06/05/2013  17:24:00       50.743      134.523       -6.049       66.174      104.748       58.939     4378.983    10972.161     3473.790        1.976        0.941      143.775       57.673        0.161      350.416       31.563      859.938
06/05/2013  17:25:00       41.295      115.397        3.955       60.569       74.848       46.525     3668.577     5602.221     2164.585        1.323        0.572      122.564       44.412        0.131      350.483       31.679      859.929
06/05/2013  17:26:00      186.428      148.369       -0.389       83.763       60.612       53.355     7016.191     3673.794     2846.773        3.515        0.677      238.262       37.506        0.025      350.273       31.311      859.934
06/05/2013  17:27:00      116.482       86.858       14.271       69.956       40.256       41.996     4893.833     1620.550     1763.696        1.480        0.414      145.301       17.122        0.014      350.199       31.185      859.935
06/05/2013  17:28:00       41.383       59.774       41.525       82.163       44.907       33.339     6750.785     2016.682     1111.522        0.844        0.494       72.701       27.139        0.139      349.547       30.056      859.910
06/05/2013  17:29:00       70.921      157.951      -16.554       71.947      106.621       41.137     5176.319    11368.135     1692.293        2.424        0.912      173.142       47.694        0.076      350.194       31.177      859.905
06/05/2013  17:30:00       77.235      190.269      -15.216       74.422      135.932       64.125     5538.609    18477.410     4111.989        3.526        1.406      205.348       77.083        0.141      350.260       31.291      859.897
06/05/2013  17:31:00       67.237      177.426      -21.506       83.931       75.365       44.445     7044.448     5679.949     1975.317        2.558        0.735      189.739       39.348        0.043      350.250       31.274      859.888
06/05/2013  17:32:00      -19.954      240.362      -26.304       79.661      101.867       49.570     6345.807    10376.856     2457.155        3.902        0.959      241.189       52.087        0.047      350.290       31.341      859.887
06/05/2013  17:33:00      -52.680      273.394      -33.438       70.977      104.460       42.380     5037.794    10911.900     1796.057        4.819        0.887      278.423       54.198        0.038      350.169       31.130      859.887
06/05/2013  17:34:00        2.936      123.211      -14.016       50.831       56.807       34.776     2583.823     3227.057     1209.386        1.120        0.351      123.246       26.268        0.045      350.336       31.426      859.867
06/05/2013  17:35:00       92.947       51.154       17.564       61.182       48.532       39.266     3743.190     2355.309     1541.852        0.960        0.382      106.093       26.012        0.060      349.895       30.660      859.832
06/05/2013  17:36:00      166.410       55.688       41.042      101.042       77.458       48.253    10209.555     5999.791     2328.369        2.550        0.927      175.481       47.480        0.073      350.007       30.850      859.819
06/05/2013  17:37:00      213.781      139.126       35.186      106.549       95.906       60.194    11352.779     9197.886     3623.298        4.523        1.209      255.066       40.564        0.025      350.090       30.995      859.816
06/05/2013  17:38:00       59.071      221.340      -26.383       74.425      128.675       54.732     5539.084    16557.134     2995.622        3.913        1.255      229.087       68.343        0.089      350.207       31.199      859.813
06/05/2013  17:39:00       88.909       89.768       15.798       60.544       42.032       45.506     3665.542     1766.706     2070.818        1.186        0.375      126.345       31.761        0.063      350.250       31.276      859.788
06/05/2013  17:40:00       75.490      192.421      -12.513       87.067      124.992       80.914     7580.668    15622.992     6547.136        3.631        1.488      206.699       74.223        0.129      350.342       31.434      859.789
06/05/2013  17:41:00       43.221      221.795      -28.671       88.531      123.561       69.592     7837.677    15267.361     4842.999        3.991        1.397      225.967       76.209        0.114      350.312       31.380      859.799
06/05/2013  17:42:00       62.774      158.292       -8.612       69.198      106.275       60.562     4788.326    11294.371     3667.782        2.441        0.988      170.284       58.119        0.116      350.268       31.304      859.792
06/05/2013  17:43:00       63.664      148.542       -6.709       71.958       85.148       44.476     5177.965     7250.243     1978.150        2.028        0.720      161.610       44.422        0.076      350.352       31.451      859.767
06/05/2013  17:44:00       75.667       33.289       -1.203       57.055       57.627       36.866     3255.294     3320.909     1359.121        0.738        0.397       82.666       24.938        0.091      350.464       31.646      859.777
06/05/2013  17:45:00       72.201       64.566        5.450       77.390       54.825       42.262     5989.253     3005.747     1786.079        1.009        0.539       96.859       34.734        0.129      350.402       31.538      859.765
06/05/2013  17:46:00      208.753      141.777        9.888      100.527       89.427       69.800    10105.758     7997.133     4872.011        4.337        1.149      252.346       49.020        0.038      350.332       31.416      859.746
06/05/2013  17:47:00       67.188      212.459      -10.000      126.369      148.406       59.630    15969.130    22024.214     3555.693        4.564        2.077      222.830       73.175        0.108      350.385       31.508      859.727
06/05/2013  17:48:00      223.825      198.404       23.398      173.588      132.824       92.857    30132.914    17642.285     8622.400        7.319        2.820      299.102       72.230        0.058      350.367       31.476      859.715
06/05/2013  17:49:00       69.379      279.972      -14.841      140.812      189.230       81.316    19827.993    35807.970     6612.280        7.282        3.112      288.440       77.192        0.072      350.416       31.561      859.737
06/05/2013  17:50:00       63.394      262.077      -35.786      103.127      143.437       72.242    10635.196    20574.140     5218.854        5.520        1.821      269.635       77.303        0.082      350.331       31.414      859.746
06/05/2013  17:51:00       53.618      224.061      -23.822       77.600      119.711       52.456     6021.832    14330.675     2751.641        3.837        1.155      230.387       65.631        0.081      350.302       31.362      859.734
06/05/2013  17:52:00      122.298      168.169       -5.630      145.963      123.067       57.841    21305.308    15145.500     3345.596        4.152        1.990      207.936       54.457        0.069      350.299       31.359      859.719
06/05/2013  17:53:00      220.908      275.859       -3.836      159.092      163.912      126.425    25310.280    26867.187    15983.395        9.652        3.408      353.410      116.986        0.110      350.148       31.095      859.726
06/05/2013  17:54:00      198.517      120.169       21.254       98.920       96.036       73.922     9785.140     9222.826     5464.530        3.938        1.224      232.055       46.627        0.040      350.175       31.142      859.696
06/05/2013  17:55:00       98.612       82.193        6.778      108.797       82.318       55.241    11836.792     6776.188     3051.590        1.909        1.083      128.374       51.537        0.161      350.168       31.133      859.696
06/05/2013  17:56:00      244.303      123.589       47.779      141.768       97.222       71.477    20098.189     9452.195     5108.895        5.594        1.733      273.785       46.777        0.029      350.183       31.157      859.671
06/05/2013  17:57:00      238.793      145.184       33.099      187.812      132.132       97.516    35273.166    17458.747     9509.366        7.071        3.112      279.464       59.673        0.046      350.167       31.128      859.645
06/05/2013  17:58:00      258.396      204.695       47.008      132.602       83.434       74.677    17583.365     6961.279     5576.626        7.049        1.506      329.649       42.584        0.017      350.220       31.221      859.666
06/05/2013  17:59:00      287.499      194.864       53.689      108.593       88.433       64.720    11792.414     7820.395     4188.698        7.365        1.190      347.315       51.818        0.022      350.287       31.337      859.650
06/05/2013  18:00:00      231.931      151.651       22.801      100.757       95.792       75.107    10152.001     9176.027     5640.989        5.113        1.248      277.110       44.560        0.026      350.243       31.260      859.640
06/05/2013  18:01:00      259.467      154.678       81.414      141.028      101.023       75.522    19888.918    10205.605     5703.547        6.683        1.790      302.073       51.214        0.029      350.264       31.296      859.624
06/05/2013  18:02:00      287.015      185.477       56.056      134.670      102.703       74.646    18136.048    10547.970     5572.001        7.708        1.713      341.730       50.297        0.022      350.145       31.090      859.634
06/05/2013  18:03:00      252.623      152.097       31.294      126.035       99.013       80.543    15884.796     9803.611     6487.166        6.005        1.609      294.876       65.382        0.049      350.156       31.109      859.653
06/05/2013  18:04:00      119.970       64.241       18.886       93.429       75.599       62.492     8729.060     5715.150     3905.253        1.861        0.917      136.087       46.101        0.115      350.145       31.093      859.671
06/05/2013  18:05:00      240.555      108.917       46.922      137.644       82.131       66.709    18945.978     6745.549     4450.102        5.103        1.507      264.064       47.415        0.032      350.214       31.210      859.677
06/05/2013  18:06:00      171.896       68.262       50.593      115.884       76.272       61.110    13429.100     5817.359     3734.373        2.987        1.149      184.954       51.871        0.079      349.828       30.541      859.697
06/05/2013  18:07:00      182.616       67.787       24.721      112.470       76.316       66.591    12649.512     5824.159     4434.340        3.073        1.145      194.792       54.987        0.080      350.126       31.057      859.700
06/05/2013  18:08:00      161.396       41.988       33.123      113.375       97.126       69.299    12853.937     9433.455     4802.320        2.799        1.354      166.769       46.465        0.078      350.046       30.919      859.708
06/05/2013  18:09:00      221.971      125.024       34.698       86.745       74.672       59.447     7524.656     5575.916     3533.984        4.137        0.832      254.759       32.774        0.017      350.223       31.225      859.708
06/05/2013  18:10:00      187.111      136.705       15.073       77.326       65.488       43.588     5979.315     4288.636     1899.911        3.304        0.608      231.730       27.241        0.014      350.173       31.139      859.726
06/05/2013  18:11:00      212.129      166.729       31.920      116.364       71.551       69.072    13540.519     5119.476     4770.873        4.862        1.172      269.810       40.539        0.023      350.237       31.249      859.742
06/05/2013  18:12:00      134.485      101.553       13.530       92.073       74.302       56.628     8477.415     5520.735     3206.728        2.289        0.860      168.521       46.560        0.076      350.237       31.252      859.760
06/05/2013  18:13:00       18.519       80.479       25.427       71.087       87.872       50.891     5053.358     7721.522     2589.935        1.141        0.768       82.583       52.567        0.405      350.310       31.379      859.756
06/05/2013  18:14:00       81.006       64.795       -4.062       71.988       54.706       35.759     5182.272     2992.784     1278.708        1.011        0.473      103.732       21.085        0.041      350.198       31.184      859.753
06/05/2013  18:15:00       19.813      241.583      -38.740       41.997       96.985       26.988     1763.746     9406.022      728.376        3.607        0.595      242.394       35.889        0.022      350.211       31.208      859.754
06/05/2013  18:16:00      220.169      143.162       32.981      135.084      108.881       63.539    18247.759    11855.094     4037.175        5.209        1.707      262.621       34.205        0.017      350.201       31.188      859.753
06/05/2013  18:17:00      280.774      189.837       38.131      132.824       92.367       72.747    17642.312     8531.737     5292.145        7.389        1.573      338.928       50.315        0.022      350.176       31.141      859.780
06/05/2013  18:18:00      222.571      142.535       23.189      108.329       66.781       61.865    11735.280     4459.683     3827.243        4.520        1.001      264.299       34.187        0.017      350.133       31.069      859.817
06/05/2013  18:19:00      185.989      181.718       26.283       91.412      122.443       87.115     8356.229    14992.315     7588.999        4.961        1.547      260.025       70.966        0.074      350.179       31.148      859.835
06/05/2013  18:20:00       60.701      202.487       -3.101       74.348      129.986       72.992     5527.630    16896.406     5327.896        3.622        1.388      211.390       79.549        0.142      350.123       31.052      859.852
06/05/2013  18:21:00       52.138      170.280       -8.974       67.201      102.913       58.247     4516.026    10591.160     3392.726        2.514        0.925      178.083       59.831        0.113      350.179       31.150      859.838
06/05/2013  18:22:00       69.075      164.512        5.160       99.063       88.271       54.120     9813.534     7791.722     2928.940        2.619        1.027      178.425       51.714        0.084      350.296       31.353      859.837
06/05/2013  18:23:00      231.310      190.454       28.977      135.308       89.937       84.533    18308.128     8088.715     7145.804        6.207        1.677      299.628       63.671        0.045      350.119       31.043      859.855
06/05/2013  18:24:00       62.730      208.804       -0.945       97.870      124.042       78.013     9578.633    15386.395     6085.996        3.929        1.553      218.024       73.293        0.113      350.102       31.015      859.863
06/05/2013  18:25:00      231.321      126.516       20.793       88.458       73.896       52.818     7824.842     5460.635     2789.708        4.301        0.804      263.659       18.207        0.005      350.076       30.969      859.863
06/05/2013  18:26:00      121.800       92.139       15.178      111.665       71.455       57.967    12469.094     5105.816     3360.145        2.224        1.047      152.725       33.964        0.049      350.157       31.113      859.884
06/05/2013  18:27:00       48.505      228.181        2.200      118.341      145.321       76.630    14004.667    21118.091     5872.206        4.770        2.050      233.279       81.581        0.122      350.133       31.069      859.913
06/05/2013  18:28:00       74.040      292.040      -35.633       89.427      164.465       87.313     7997.227    27048.632     7623.475        6.735        2.133      301.279       99.551        0.109      350.124       31.053      859.907
06/05/2013  18:29:00      102.318      210.902      -16.612      104.756      109.420       61.392    10973.759    11972.756     3768.988        4.096        1.336      234.411       59.355        0.064      350.129       31.062      859.920
06/05/2013  18:30:00      148.603      112.496       36.271      128.318       86.219       65.559    16465.627     7433.638     4297.946        3.212        1.410      186.382       47.778        0.066      350.148       31.094      859.904
06/05/2013  18:31:00      290.535      205.334       35.120       93.023       73.826       59.069     8653.246     5450.212     3489.189        7.270        0.880      355.771       39.012        0.012      350.024       30.879      859.905
06/05/2013  18:32:00      281.036      139.257       42.993      131.622       94.206       69.073    17324.421     8874.818     4771.039        6.559        1.549      313.646       40.939        0.017      350.084       30.985      859.899
06/05/2013  18:33:00      137.214       81.314       33.983       97.290       92.317       66.072     9465.389     8522.496     4365.458        2.447        1.118      159.498       31.253        0.038      349.909       30.681      859.891
06/05/2013  18:34:00       89.497       46.471       16.235       87.232       42.771       29.108     7609.491     1829.319      847.291        1.036        0.514      100.843       22.610        0.050      350.078       30.976      859.893
06/05/2013  18:35:00      174.953       96.221       33.951      102.710       71.759       46.431    10549.424     5149.408     2155.826        2.943        0.893      199.667       22.078        0.012      350.075       30.968      859.885
06/05/2013  18:36:00      235.527      140.513       31.196      129.267       69.303       67.297    16710.056     4802.909     4528.822        5.111        1.302      274.257       33.670        0.015      350.140       31.081      859.878
06/05/2013  18:37:00      223.041      156.762       19.974      103.564       84.566       65.278    10725.459     7151.375     4261.239        4.842        1.107      272.620       45.288        0.028      350.077       30.969      859.891
06/05/2013  18:38:00      191.692      134.136       10.628      111.134       87.801       81.694    12350.863     7709.009     6673.830        4.079        1.337      233.962       58.700        0.063      350.043       30.913      859.893
06/05/2013  18:39:00      134.040       59.990       12.916       62.290       50.943       44.933     3880.038     2595.203     2018.994        1.511        0.425      146.852       27.411        0.035      350.075       30.970      859.890
06/05/2013  18:40:00      131.074       90.026       14.155       91.471       62.842       60.117     8366.955     3949.121     3614.039        2.070        0.797      159.013       45.645        0.082      350.133       31.070      859.894
06/05/2013  18:41:00      111.671      139.575       -3.893       98.602       82.490       51.462     9722.432     6804.523     2648.299        2.557        0.959      178.750       44.189        0.061      350.133       31.070      859.904
06/05/2013  18:42:00      133.844      119.801       13.347      109.380       63.841       59.754    11963.902     4075.701     3570.489        2.602        0.981      179.629       34.326        0.037      350.070       30.960      859.899
06/05/2013  18:43:00      148.816       91.422       12.711      119.372       72.001       47.856    14249.610     5184.102     2290.219        2.619        1.086      174.655       41.346        0.056      350.143       31.088      859.911
06/05/2013  18:44:00       78.874      179.725       -1.488      104.620      107.622       68.574    10945.400    11582.470     4702.384        3.287        1.362      196.271       68.140        0.121      350.031       30.894      859.926
06/05/2013  18:45:00      139.787      120.470        4.242      100.915       66.271       61.417    10183.749     4391.802     3772.082        2.621        0.917      184.535       44.305        0.058      349.992       30.825      859.925
06/05/2013  18:46:00      175.319      147.282       11.290      123.313       92.237       74.532    15206.108     8507.589     5555.048        4.091        1.463      228.973       64.636        0.080      350.001       30.842      859.931
06/05/2013  18:47:00       80.836       70.071        0.906       84.846       55.060       52.354     7198.770     3031.651     2740.926        1.221        0.649      106.979       40.482        0.143      349.863       30.603      859.927
06/05/2013  18:48:00       55.741      167.322      -16.014       53.154       72.570       46.448     2825.339     5266.401     2157.448        2.080        0.512      176.362       41.536        0.055      349.904       30.674      859.936
06/05/2013  18:49:00       50.261      132.017       -9.828       38.453       89.219       39.960     1478.604     7959.949     1596.788        1.554        0.552      141.261       44.958        0.101      349.943       30.741      859.943
06/05/2013  18:50:00      102.474      114.868        4.538       75.886       42.800       45.167     5758.612     1831.868     2040.025        1.667        0.482      153.933       37.184        0.058      349.912       30.687      859.948
06/05/2013  18:51:00       88.785       71.117       31.514       66.617       55.713       47.601     4437.890     3103.938     2265.880        1.187        0.490      113.756       23.245        0.042      349.825       30.537      859.950
06/05/2013  18:52:00      132.713      119.418        9.027       74.538       62.107       46.424     5555.910     3857.325     2155.155        2.176        0.578      178.532       31.612        0.031      349.897       30.660      859.939
06/05/2013  18:53:00      158.574      118.534       30.155       90.334       63.198       57.913     8160.224     3993.982     3353.896        2.780        0.775      197.979       37.515        0.036      349.904       30.672      859.938
06/05/2013  18:54:00      128.336      163.843        8.483      121.303      102.804       55.786    14714.378    10568.641     3112.046        3.589        1.420      208.122       53.342        0.066      349.890       30.649      859.935
06/05/2013  18:55:00       74.374      105.231        6.875       92.923      107.959       46.695     8634.604    11655.184     2180.443        1.956        1.124      128.860       43.132        0.112      349.781       30.459      859.945
06/05/2013  18:56:00      104.717      135.721        6.862       87.524       73.648       60.660     7660.420     5424.014     3679.588        2.310        0.838      171.423       46.805        0.075      349.832       30.547      859.956
06/05/2013  18:57:00       61.056      181.381      -15.726       73.852      125.339       61.529     5454.119    15709.773     3785.768        3.091        1.247      191.382       68.400        0.128      349.816       30.520      859.961
06/05/2013  18:58:00       42.100      204.699      -21.314       64.256      134.642       57.116     4128.859    18128.499     3262.280        3.482        1.276      208.983       65.579        0.098      349.797       30.485      859.957
06/05/2013  18:59:00      144.934      129.922        4.593       98.092       84.076       55.951     9622.007     7068.775     3130.479        2.886        0.991      194.642       45.744        0.055      349.709       30.332      859.969
06/05/2013  19:00:00       99.492      100.399       -1.382       81.893       86.164       57.808     6706.508     7424.259     3341.801        1.872        0.874      141.346       42.371        0.090      349.700       30.317      859.956
06/05/2013  19:01:00      205.391      111.999       23.716      117.885       76.432       50.265    13896.773     5841.926     2526.616        3.877        1.113      233.943       29.910        0.016      349.737       30.381      859.964
06/05/2013  19:02:00      185.098      141.122       22.316      131.341       78.243       70.231    17250.543     6121.919     4932.337        4.148        1.415      232.759       50.053        0.046      349.755       30.412      859.957
06/05/2013  19:03:00      228.793      154.566       21.609      112.580       75.195       61.833    12674.363     5654.214     3823.367        4.942        1.108      276.111       17.294        0.004      349.771       30.439      859.957
06/05/2013  19:04:00       70.477      110.653       10.910       77.874       76.032       55.963     6064.387     5780.817     3131.886        1.615        0.749      131.191       47.104        0.129      349.755       30.414      859.977
06/05/2013  19:05:00      108.305      133.981       -8.311       91.508       79.346       73.144     8373.733     6295.758     5350.046        2.488        1.001      172.282       60.076        0.122      349.773       30.445      859.980
06/05/2013  19:06:00      105.470      168.122        9.971      102.748       86.755       68.211    10557.182     7526.493     4652.789        3.111        1.137      198.466       60.221        0.092      349.813       30.512      859.981
06/05/2013  19:07:00       70.133      110.090        3.117       64.668       69.666       54.220     4181.889     4853.355     2939.788        1.451        0.599      130.532       47.378        0.132      349.723       30.360      859.993
06/05/2013  19:08:00      165.691      135.540       48.016       85.761       55.192       66.910     7354.973     3046.203     4476.954        3.150        0.744      214.067       45.716        0.046      349.766       30.433      859.996
06/05/2013  19:09:00       57.620      136.765        1.905       68.418       75.834       52.157     4681.001     5750.836     2720.363        1.759        0.658      148.407       42.297        0.081      349.721       30.354      859.999
06/05/2013  19:10:00      110.965      105.019        8.840       63.306       41.687       37.742     4007.670     1737.811     1424.435        1.529        0.358      152.781       25.209        0.027      349.725       30.363      859.986
06/05/2013  19:11:00      207.344      133.299       34.312       84.830       58.831       49.548     7196.169     3461.070     2454.991        3.752        0.656      246.496       38.096        0.024      349.768       30.435      859.982
06/05/2013  19:12:00      123.328       87.174        8.812       66.023       58.566       50.860     4359.035     3429.948     2586.721        1.663        0.519      151.027       34.301        0.052      349.648       30.231      859.980
06/05/2013  19:13:00       36.842      128.365      -12.520       63.668       73.698       37.325     4053.615     5431.333     1393.161        1.443        0.544      133.547       41.456        0.096      349.732       30.376      859.970
06/05/2013  19:14:00       71.554      169.264      -20.330       75.831       71.736       39.139     5750.322     5146.010     1531.874        2.330        0.621      183.767       40.186        0.048      349.747       30.398      859.955
06/05/2013  19:15:00       98.477      117.185        6.476       70.893       52.067       45.031     5025.824     2710.990     2027.828        1.662        0.488      153.069       37.131        0.059      349.751       30.407      859.954
06/05/2013  19:16:00       82.888       45.392       20.802       59.335       41.924       30.420     3520.595     1757.659      925.386        0.778        0.310       94.503       19.812        0.044      349.471       29.923      859.959
06/05/2013  19:17:00      107.038       49.092       19.966       49.654       56.670       31.449     2465.547     3211.506      989.031        1.046        0.333      117.759        4.746        0.002      349.138       29.346      859.966
06/05/2013  19:18:00      158.585      106.973       32.948       59.432       57.980       45.228     3532.123     3361.646     2045.545        2.331        0.447      191.292       26.066        0.019      349.625       30.187      859.975
06/05/2013  19:19:00       35.743       39.427        6.137       34.989       33.521       27.067     1224.230     1123.627      732.632        0.297        0.154       53.216       21.668        0.166      349.503       29.979      859.986
06/05/2013  19:20:00       85.625       56.894       27.651       51.566       44.552       39.323     2659.013     1984.885     1546.310        0.876        0.310      102.803       22.238        0.047      349.496       29.966      859.989
06/05/2013  19:21:00       78.521       74.755       15.007       72.836       56.467       48.394     5305.039     3188.467     2342.014        1.141        0.542      108.415       34.471        0.101      349.670       30.269      859.990
06/05/2013  19:22:00      150.275      107.519       15.171       71.519       47.670       38.679     5114.900     2272.451     1496.102        2.163        0.444      184.777       21.668        0.014      349.655       30.239      860.008
06/05/2013  19:23:00       45.926       72.701        0.989       42.666       56.448       39.986     1820.346     3186.365     1598.914        0.700        0.330       85.992       38.697        0.203      349.568       30.092      860.021
06/05/2013  19:24:00       42.323       97.292      -13.408       38.068       53.747       31.628     1449.143     2888.691     1000.355        0.839        0.267      106.099       34.006        0.103      349.608       30.160      860.035
06/05/2013  19:25:00       15.213       61.070       -6.553       25.963       43.992       22.443      674.077     1935.277      503.670        0.356        0.156       62.936       27.076        0.185      349.522       30.011      860.041
06/05/2013  19:26:00        9.460       61.256       -7.693       32.405       47.702       25.060     1050.063     2275.435      627.999        0.393        0.198       61.982       27.520        0.197      349.540       30.044      860.042
06/05/2013  19:27:00       53.947      134.812       -5.573       71.281       65.771       38.040     5081.021     4325.814     1447.069        1.598        0.543      145.206       37.446        0.067      349.615       30.172      860.028
06/05/2013  19:28:00      120.765      103.213       -0.535       89.461       57.164       47.076     8003.339     3267.735     2216.189        1.936        0.674      158.862       30.195        0.036      349.587       30.124      860.036
06/05/2013  19:29:00      178.551      126.165       15.970      116.532       83.533       53.358    13579.601     6977.689     2847.070        3.572        1.170      218.627       41.861        0.037      349.630       30.195      860.026
06/05/2013  19:30:00       76.311       98.675       -7.582       57.095       53.804       33.294     3259.878     2894.828     1108.523        1.144        0.363      124.740       28.675        0.053      349.547       30.054      860.042
06/05/2013  19:31:00       65.854       74.013       17.651       63.920       45.504       41.896     4085.726     2070.590     1755.290        0.902        0.396       99.069       30.754        0.096      349.552       30.065      860.058
06/05/2013  19:32:00       14.443       96.426      -15.324       23.899       32.205       20.203      571.154     1037.134      408.153        0.588        0.101       97.502       13.504        0.019      349.551       30.063      860.061
06/05/2013  19:33:00       10.518      107.133      -24.441       31.557       31.947       13.209      995.865     1020.600      174.486        0.719        0.110      107.648       14.726        0.019      349.599       30.146      860.073
06/05/2013  19:34:00        0.530      139.322      -24.822       49.908       66.785       28.021     2490.807     4460.248      785.151        1.388        0.387      139.323       33.898        0.059      349.675       30.277      860.087
06/05/2013  19:35:00       -4.844      115.371      -13.134       53.307       53.182       31.722     2841.676     2828.363     1006.264        1.009        0.334      115.472       30.711        0.071      349.652       30.238      860.107
06/05/2013  19:36:00      -96.272       35.932      -16.073       53.444       42.553       17.023     2856.230     1810.746      289.797        0.789        0.248      102.759       13.072        0.016      349.592       30.133      860.137
06/05/2013  19:37:00     -147.293      -25.110      -13.667       41.906       38.680       24.474     1756.113     1496.118      598.959        1.318        0.193      149.418       20.707        0.019      349.739       30.390      860.144
06/05/2013  19:38:00     -133.034       -0.179       -6.291       59.519       50.589       36.013     3542.511     2559.262     1296.927        1.257        0.370      133.035       34.224        0.066      349.640       30.215      860.145
06/05/2013  19:39:00     -151.249      -13.697       -3.366       77.262       65.127       38.115     5969.426     4241.523     1452.766        1.737        0.583      151.868       35.493        0.055      349.646       30.226      860.136
06/05/2013  19:40:00     -208.111      -54.481      -13.852       71.995       58.626       40.187     5183.212     3436.990     1614.957        2.835        0.512      215.124       28.679        0.018      349.562       30.080      860.118
06/05/2013  19:41:00     -139.056      -35.170       -7.111       49.963       73.037       35.189     2496.317     5334.474     1238.265        1.484        0.453      143.434       33.324        0.054      349.585       30.122      860.121
06/05/2013  19:42:00     -189.115       23.370       -3.963      111.043       78.796       39.029    12330.621     6208.792     1523.269        2.819        1.003      190.553       45.297        0.057      349.370       29.746      860.104
06/05/2013  19:43:00     -174.299      -33.315        2.181       97.769       66.903       48.360     9558.682     4476.038     2338.711        2.393        0.819      177.455       57.906        0.106      349.569       30.092      860.111
06/05/2013  19:44:00     -238.248      -32.436       -6.229      138.570       75.575       65.439    19201.591     5711.536     4282.198        4.352        1.460      240.446       78.229        0.106      349.445       29.876      860.102
06/05/2013  19:45:00     -230.904      -87.074      -12.393       94.255       80.632       45.736     8883.999     6501.557     2091.777        3.926        0.874      246.776       52.870        0.046      349.510       29.987      860.112
06/05/2013  19:46:00     -273.816      -78.409      -21.049       75.600       84.525       48.377     5715.312     7144.430     2340.362        4.838        0.760      284.821       34.629        0.015      349.514       29.993      860.103
06/05/2013  19:47:00     -228.417      -55.138      -16.601       85.343       69.373       44.885     7283.455     4812.579     2014.647        3.480        0.706      234.978       41.049        0.031      349.541       30.040      860.129
06/05/2013  19:48:00     -169.873      -60.137       -7.505       81.678       79.647       46.028     6671.317     6343.650     2118.580        2.383        0.757      180.204       44.247        0.060      349.526       30.015      860.137
06/05/2013  19:49:00     -274.669      -13.309      -11.500       99.342       85.687       55.695     9868.745     7342.279     3101.956        4.803        1.016      274.991       53.759        0.038      349.521       30.007      860.151
06/05/2013  19:50:00     -251.276     -102.192       -9.044       88.690       87.345       50.044     7865.905     7629.062     2504.434        4.583        0.900      271.262       43.420        0.026      349.472       29.921      860.154
06/05/2013  19:51:00     -261.806      -63.931      -19.543       85.121       75.347       45.164     7245.599     5677.223     2039.781        4.398        0.748      269.499       38.725        0.021      349.482       29.939      860.159
06/05/2013  19:52:00     -199.038       32.480       -5.687       90.165       66.281       40.322     8129.718     4393.157     1625.871        2.742        0.707      201.671       39.003        0.037      349.437       29.861      860.176
06/05/2013  19:53:00     -144.237      -46.569      -11.793      100.691       78.340       51.139    10138.698     6137.143     2615.182        2.100        0.945      151.568       46.337        0.093      349.452       29.890      860.181
06/05/2013  19:54:00     -170.209      -19.896       -6.450       89.118       60.838       38.155     7942.054     3701.254     1455.837        2.125        0.655      171.368       37.942        0.049      349.421       29.832      860.189
06/05/2013  19:55:00     -160.693       -0.528      -11.071       88.840       49.349       38.521     7892.619     2435.290     1483.855        1.888        0.591      160.694       33.430        0.043      349.423       29.838      860.202
06/05/2013  19:56:00      -36.584        7.028       17.590       56.616       39.022       26.583     3205.363     1522.751      706.660        0.356        0.272       37.252       30.161        0.656      349.230       29.506      860.198
06/05/2013  19:57:00      -99.647       41.628      -10.190       70.927       39.250       27.892     5030.631     1540.551      777.942        0.956        0.367      107.993       34.555        0.102      349.276       29.585      860.205
06/05/2013  19:58:00      -53.970       52.862       -1.113       44.051       30.617       23.033     1940.484      937.375      530.526        0.456        0.170       75.545       21.118        0.078      349.122       29.318      860.211
06/05/2013  19:59:00        2.059       32.106        1.980       56.859       45.639       26.441     3232.960     2082.876      699.106        0.353        0.301       32.172       25.139        0.611      348.821       28.798      860.205
06/05/2013  20:00:00       18.445       61.484      -11.574       27.367       56.660       18.365      748.932     3210.346      337.258        0.427        0.215       64.191       11.154        0.030      348.662       28.523      860.206
06/05/2013  20:01:00      -82.884      102.276       -6.341       54.774       47.441       35.853     3000.216     2250.655     1285.404        1.195        0.327      131.644       38.337        0.085      349.042       29.179      860.211
06/05/2013  20:02:00      -70.664      102.498       -2.441       41.009       62.803       28.812     1681.736     3944.277      830.145        1.098        0.323      124.496       26.991        0.047      349.048       29.190      860.227
06/05/2013  20:03:00      -16.931       12.361       19.825       68.179       43.815       28.283     4648.352     1919.757      799.949        0.410        0.368       20.963       41.520        3.923      349.072       29.231      860.238
06/05/2013  20:04:00        6.886       52.817        0.765       38.518       38.632       20.473     1483.659     1492.412      419.139        0.312        0.170       53.264       14.056        0.070      348.662       28.522      860.240
06/05/2013  20:05:00      -19.571       79.413      -16.615       24.799       20.398       17.155      615.001      416.090      294.306        0.415        0.066       81.789        7.868        0.009      349.059       29.209      860.261
06/05/2013  20:06:00      -40.557      118.123        4.166       52.188       49.363       38.227     2723.579     2436.754     1461.337        1.112        0.331      124.892       36.839        0.087      348.938       28.998      860.270
06/05/2013  20:07:00      -73.043       50.231        3.169       30.903       30.549       20.714      954.975      933.272      429.053        0.509        0.116       88.648       19.254        0.047      349.030       29.160      860.281
06/05/2013  20:08:00     -119.527      -15.728      -11.237       41.711       39.648       20.942     1739.774     1571.997      438.555        0.920        0.188      120.558       20.392        0.029      349.062       29.213      860.289
06/05/2013  20:09:00     -158.748       17.034      -26.160       48.245       70.046       32.236     2327.534     4906.457     1039.161        1.722        0.414      159.660       28.408        0.032      349.106       29.288      860.285
06/05/2013  20:10:00     -164.629      -66.154        3.024      115.887       84.739       43.088    13429.828     7180.770     1856.535        2.697        1.123      177.424       51.081        0.083      349.037       29.168      860.276
06/05/2013  20:11:00     -304.530      -86.027      -26.638      111.651      101.818       57.938    12465.963    10367.003     3356.822        6.351        1.309      316.448       58.773        0.034      349.089       29.256      860.281
06/05/2013  20:12:00     -185.111      -63.135       -9.007       81.712       74.769       39.925     6676.782     5590.462     1594.027        2.609        0.693      195.581       33.278        0.029      349.111       29.297      860.276
06/05/2013  20:13:00     -173.029      -42.888        0.571      118.928       83.099       47.657    14143.945     6905.474     2271.232        2.755        1.166      178.265       54.583        0.094      349.016       29.132      860.286
06/05/2013  20:14:00     -238.001      -60.870        3.720       96.720       71.568       45.193     9354.839     5122.045     2042.431        3.844        0.826      245.662       42.558        0.030      349.049       29.188      860.297
06/05/2013  20:15:00     -187.805      -50.298        5.048       85.869       88.854       45.891     7373.410     7894.974     2105.994        2.760        0.869      194.423       45.073        0.054      349.039       29.172      860.313
06/05/2013  20:16:00     -206.943      -31.562       -8.626       69.243       68.459       42.830     4794.602     4686.687     1834.384        2.760        0.566      209.336       39.277        0.035      349.076       29.235      860.311
06/05/2013  20:17:00     -199.599      -79.118       -9.641       92.153       63.483       37.227     8492.198     4030.097     1385.815        3.005        0.695      214.708       42.822        0.040      349.075       29.234      860.331
06/05/2013  20:18:00     -245.226      -92.509      -11.807       79.679       68.887       44.987     6348.754     4745.448     2023.836        4.097        0.656      262.095       35.020        0.018      349.122       29.315      860.331
06/05/2013  20:19:00     -171.625      -65.389       -4.704       65.193       56.385       31.253     4250.169     3179.245      976.758        2.108        0.420      183.660       30.271        0.027      349.098       29.273      860.331
06/05/2013  20:20:00     -158.351      -48.001       -2.184      106.924       82.705       47.654    11432.645     6840.058     2270.867        2.396        1.027      165.467       53.395        0.104      349.035       29.166      860.330
06/05/2013  20:21:00     -263.472      -46.320        1.470      102.599       82.650       52.428    10526.548     6831.094     2748.672        4.583        1.005      267.513       53.581        0.040      349.193       29.438      860.346
06/05/2013  20:22:00     -155.156       58.424        0.701       98.020       86.250       46.989     9607.980     7439.127     2207.920        2.337        0.963      165.791       48.753        0.086      349.052       29.195      860.343
06/05/2013  20:23:00     -195.832      -57.851       -3.170      101.542       69.834       41.254    10310.729     4876.835     1701.889        2.929        0.844      204.198       37.384        0.034      349.028       29.152      860.356
06/05/2013  20:24:00     -201.863      -87.249       -9.734       67.140       66.971       37.556     4507.727     4485.068     1410.430        2.943        0.520      219.912       25.513        0.013      349.150       29.363      860.363
06/05/2013  20:25:00     -205.213      -40.265       -1.039       89.319       54.547       40.919     7977.931     2975.370     1674.377        2.818        0.631      209.126       42.718        0.042      349.078       29.239      860.370
06/05/2013  20:26:00     -229.312      -47.390      -12.741       80.257       59.471       33.303     6441.132     3536.809     1109.094        3.304        0.554      234.157       35.018        0.022      349.047       29.184      860.386
06/05/2013  20:27:00     -257.858      -60.848      -17.412       67.569       58.578       33.046     4565.558     3431.434     1092.025        3.979        0.454      264.940       26.171        0.010      349.110       29.293      860.384
06/05/2013  20:28:00     -167.247      -46.076       -1.134       77.787       65.635       36.476     6050.743     4308.016     1330.493        2.089        0.584      173.478       38.915        0.050      349.035       29.166      860.395
06/05/2013  20:29:00     -191.255      -75.944       -6.179       46.673       34.988       25.658     2178.372     1224.190      658.352        2.322        0.203      205.781       20.621        0.010      348.999       29.104      860.399
06/05/2013  20:30:00      -96.781      -38.322       -1.543       49.656       38.412       22.488     2465.693     1475.480      505.694        0.764        0.222      104.092       15.474        0.022      348.982       29.074      860.397
06/05/2013  20:31:00     -121.419      -15.410       -7.182       28.200       38.818       22.574      795.229     1506.842      509.588        0.892        0.141      122.393       17.111        0.020      348.980       29.072      860.407
06/05/2013  20:32:00     -244.637      -89.596       -7.675       90.861       72.476       39.934     8255.789     5252.721     1594.685        4.152        0.755      260.528       41.952        0.026      348.938       28.996      860.397
06/05/2013  20:33:00     -192.688      -48.538        0.179       89.525       68.138       38.858     8014.651     4642.725     1509.966        2.682        0.708      198.708       41.576        0.044      348.859       28.859      860.408
06/05/2013  20:34:00     -199.475      -55.319       -4.810       83.712       46.712       34.125     7007.679     2181.984     1164.510        2.661        0.518      207.003       35.003        0.029      348.845       28.835      860.420
06/05/2013  20:35:00     -169.021      -34.397       -5.599       89.634       77.082       34.928     8034.281     5941.635     1219.960        2.249        0.760      172.486       38.194        0.049      348.829       28.808      860.424
06/05/2013  20:36:00     -173.805      -71.639        0.841       55.940       44.333       26.927     3129.283     1965.446      725.053        2.058        0.291      187.990       26.814        0.020      348.734       28.644      860.435
06/05/2013  20:37:00     -200.685      -22.366       -7.184       65.828       52.100       26.426     4333.318     2714.407      698.313        2.428        0.387      201.927       27.891        0.019      348.750       28.672      860.437
06/05/2013  20:38:00     -191.859      -37.199       -2.020       67.035       55.657       40.452     4493.697     3097.665     1636.339        2.371        0.461      195.432       38.739        0.039      348.718       28.615      860.450
06/05/2013  20:39:00     -148.945      -32.334       -5.799       69.075       43.272       27.801     4771.400     1872.496      772.870        1.534        0.371      152.414       30.863        0.041      348.754       28.679      860.454
06/05/2013  20:40:00     -213.405      -80.308       -6.379       68.861       60.242       39.090     4741.834     3629.063     1528.053        3.096        0.495      228.015       39.549        0.030      348.659       28.512      860.466
06/05/2013  20:41:00     -215.068      -64.069       -6.802       53.276       46.154       31.467     2838.286     2130.226      990.193        2.818        0.298      224.409       32.783        0.021      348.660       28.514      860.468
06/05/2013  20:42:00     -180.733      -58.070        1.309       82.394       62.031       39.584     6788.702     3847.896     1566.915        2.412        0.610      189.833       37.133        0.038      348.617       28.442      860.477
06/05/2013  20:43:00     -131.990      -42.904        7.225       80.109       58.316       36.208     6417.376     3400.720     1310.986        1.522        0.556      138.788       41.091        0.088      348.549       28.325      860.488
06/05/2013  20:44:00      -84.356      -10.414        8.744       59.911       39.058       29.711     3589.376     1525.534      882.740        0.665        0.300       84.996       32.868        0.150      348.488       28.221      860.491
06/05/2013  20:45:00     -132.592      -66.465       -1.501       50.400       56.743       34.386     2540.197     3219.802     1182.375        1.447        0.347      148.318       25.027        0.028      348.542       28.313      860.507
06/05/2013  20:46:00     -139.700      -68.359        1.231       69.018       52.909       35.375     4763.536     2799.310     1251.394        1.650        0.441      155.528       31.745        0.042      348.584       28.385      860.519
06/05/2013  20:47:00     -225.965      -12.567       -8.255       69.810       55.782       39.733     4873.369     3111.580     1578.716        3.042        0.478      226.314       40.171        0.032      348.560       28.340      860.541
06/05/2013  20:48:00     -128.056      -33.177        9.519       82.420       71.104       36.257     6793.060     5055.819     1314.561        1.537        0.658      132.284       42.680        0.104      348.464       28.177      860.537
06/05/2013  20:49:00     -178.174      -11.068      -11.050       57.012       45.185       37.379     3250.393     2041.723     1397.215        1.934        0.334      178.518       38.982        0.048      348.541       28.310      860.554
06/05/2013  20:50:00     -174.136      -36.409      -12.120       53.667       50.672       28.871     2880.113     2567.682      833.522        1.904        0.314      177.901       25.807        0.021      348.553       28.332      860.556
06/05/2013  20:51:00     -127.820      -31.208        2.148       62.961       52.308       35.030     3964.122     2736.157     1227.097        1.262        0.396      131.575       36.899        0.079      348.475       28.199      860.567
06/05/2013  20:52:00     -129.775       -5.633       -8.219       55.670       28.871       21.679     3099.147      833.537      469.978        1.067        0.220      129.898       21.651        0.028      348.485       28.216      860.569
06/05/2013  20:53:00     -112.041        6.924       -7.611       30.338       28.517       15.583      920.375      813.209      242.828        0.732        0.099      112.255       14.943        0.018      348.489       28.222      860.579
06/05/2013  20:54:00     -134.164      -62.055      -10.947       40.320       35.583       20.537     1625.695     1266.125      421.784        1.264        0.166      147.820       12.554        0.007      348.378       28.030      860.579
06/05/2013  20:55:00     -121.163       -1.718       -5.122       41.060       45.531       28.084     1685.957     2073.031      788.690        0.963        0.227      121.176       15.918        0.017      348.264       27.832      860.598
06/05/2013  20:56:00      -91.020       -0.833       -2.501       31.030       31.025       17.239      962.838      962.547      297.172        0.526        0.111       91.024       15.827        0.030      348.187       27.701      860.602
06/05/2013  20:57:00      -75.549       17.167      -12.240       41.095       28.640       21.659     1688.828      820.270      469.125        0.456        0.149       77.475       17.268        0.050      348.076       27.508      860.619
06/05/2013  20:58:00      -84.826       14.903      -12.300       29.865       27.894       20.228      891.899      778.065      409.192        0.482        0.104       86.126       14.335        0.028      348.128       27.598      860.618
06/05/2013  20:59:00     -127.066      -24.940      -21.307       26.971       30.669       20.014      727.450      940.595      400.544        0.964        0.103      129.490       13.446        0.011      348.149       27.634      860.637
06/05/2013  21:00:00     -175.784      -15.614      -23.716       31.647       36.618       19.431     1001.519     1340.891      377.578        1.721        0.136      176.476       13.245        0.006      347.999       27.374      860.646
06/05/2013  21:01:00     -128.858      -29.203      -12.116       38.413       35.765       21.980     1475.540     1279.130      483.141        1.042        0.162      132.126       14.692        0.012      348.004       27.385      860.659
06/05/2013  21:02:00     -171.845      -65.755      -19.888       31.310       37.515       19.301      980.290     1407.412      372.514        1.850        0.138      183.995       11.969        0.004      347.965       27.316      860.658
06/05/2013  21:03:00     -160.844      -65.298       -8.607       40.902       43.145       26.759     1672.992     1861.456      716.060        1.723        0.213      173.593       24.747        0.020      347.843       27.105      860.676
06/05/2013  21:04:00     -158.081      -55.996      -15.579       37.390       30.235       19.634     1397.995      914.173      385.511        1.553        0.135      167.706       17.414        0.011      347.925       27.248      860.679
06/05/2013  21:05:00     -141.592      -37.621       -4.614       46.433       30.377       22.972     2156.051      922.744      527.715        1.255        0.180      146.505       24.538        0.028      347.892       27.190      860.687
06/05/2013  21:06:00     -112.476       -6.272       -7.590       43.760       35.471       21.953     1914.900     1258.180      481.953        0.820        0.183      112.651       25.356        0.051      347.844       27.108      860.685
06/05/2013  21:07:00     -149.180      -49.638       -9.818       35.741       37.572       27.719     1277.436     1411.633      768.365        1.414        0.173      157.222       19.199        0.015      347.766       26.973      860.687
06/05/2013  21:08:00     -131.858      -18.738       -8.062       31.867       33.017       22.196     1015.476     1090.126      492.667        1.020        0.130      133.182       15.581        0.014      347.755       26.953      860.694
06/05/2013  21:09:00     -129.398      -14.935      -14.895       26.853       25.503       17.435      721.103      650.393      303.978        0.943        0.084      130.257       10.875        0.007      347.789       27.012      860.700
06/05/2013  21:10:00     -107.913      -51.900       -8.365       40.756       32.058       21.769     1661.060     1027.732      473.877        0.879        0.158      119.745       19.410        0.026      347.787       27.009      860.702
06/05/2013  21:11:00      -92.136      -26.596        5.408       42.989       35.402       21.033     1848.036     1253.267      442.399        0.638        0.177       95.898       20.308        0.045      347.782       27.001      860.705
06/05/2013  21:12:00     -130.102      -55.555       -8.732       39.856       27.989       17.554     1588.492      783.365      308.131        1.138        0.134      141.467        9.309        0.004      347.949       27.288      860.731
06/05/2013  21:13:00      -89.208      -70.694       -5.565       44.222       38.672       25.999     1955.621     1495.491      675.966        0.856        0.206      113.823       17.956        0.025      347.866       27.146      860.748
06/05/2013  21:14:00     -104.673      -18.375       -7.668       38.789       43.475       18.025     1504.608     1890.111      324.887        0.754        0.186      106.274       12.539        0.014      347.718       26.889      860.775
06/05/2013  21:15:00     -132.506       17.756       -8.663       47.939       18.527       19.244     2298.147      343.255      370.317        1.048        0.151      133.690       23.962        0.032      347.708       26.873      860.771
06/05/2013  21:16:00     -152.056      -62.234       -5.971       43.804       35.598       24.699     1918.793     1267.213      610.042        1.541        0.190      164.299       19.420        0.014      347.699       26.858      860.787
06/05/2013  21:17:00     -150.304       -9.568       -4.837       65.654       39.771       32.140     4310.475     1581.728     1033.006        1.481        0.346      150.608       34.583        0.053      347.985       27.351      860.780
06/05/2013  21:18:00      -73.101      -45.739        9.901       58.754       41.841       30.497     3451.999     1750.671      930.076        0.683        0.307       86.231       22.184        0.066      348.045       27.456      860.785
06/05/2013  21:19:00      -91.224      -46.108        4.088       64.369       29.441       25.191     4143.374      866.783      634.594        0.805        0.282      102.214       27.308        0.071      348.013       27.400      860.797
06/05/2013  21:20:00     -129.491      -54.092       -3.016       43.450       33.527       24.659     1887.872     1124.085      608.067        1.166        0.181      140.335       19.866        0.020      348.058       27.478      860.810
06/05/2013  21:21:00     -134.962      -28.262       -4.518       31.760       31.492       17.837     1008.680      991.760      318.169        1.068        0.116      137.890       13.419        0.009      347.928       27.253      860.828
06/05/2013  21:22:00     -176.894       15.377      -10.841       44.107       39.939       19.775     1945.466     1595.124      391.033        1.779        0.197      177.561       16.434        0.009      348.168       27.666      860.855
06/05/2013  21:23:00      -45.808      101.776      -13.040       32.037       58.186       19.006     1026.357     3385.591      361.222        0.870        0.239      111.610       19.181        0.030      347.748       26.941      860.885
06/05/2013  21:24:00      -54.207       60.828       -7.616       24.142       56.239       17.115      582.858     3162.787      292.910        0.537        0.202       81.477       17.254        0.045      347.471       26.464      860.917
06/05/2013  21:25:00      -92.551       11.948       -7.072       25.898       50.812       21.099      670.728     2581.902      445.185        0.623        0.185       93.319       17.537        0.035      347.656       26.785      860.928
06/05/2013  21:26:00     -118.054      -62.051       -7.413       30.156       29.175       26.384      909.397      851.164      696.124        1.015        0.123      133.368       20.050        0.023      347.572       26.638      860.925
06/05/2013  21:27:00     -149.225      -61.865       -5.559       31.701       26.321       17.954     1004.942      692.814      322.359        1.407        0.101      161.540       19.236        0.014      347.530       26.564      860.916
06/05/2013  21:28:00     -112.258      -49.873       -6.524       36.929       31.609       20.773     1363.786      999.135      431.535        0.896        0.140      122.837       18.730        0.023      347.705       26.869      860.914
06/05/2013  21:29:00     -108.150       -5.711       -0.066       48.356       32.461       21.738     2338.259     1053.723      472.523        0.780        0.193      108.301       23.942        0.049      347.630       26.737      860.910
06/05/2013  21:30:00     -115.125       80.869      -22.728       28.139       44.598       18.770      791.776     1989.022      352.325        1.172        0.157      140.690       23.379        0.028      347.601       26.690      860.934
06/05/2013  21:31:00     -106.403      103.662      -26.079       23.545       26.196       14.912      554.358      686.204      222.382        1.210        0.073      148.551       11.310        0.006      347.698       26.857      860.930
06/05/2013  21:32:00      -69.602       35.582       -8.147       18.801       37.232       16.398      353.466     1386.205      268.879        0.409        0.100       78.170       15.559        0.040      347.619       26.719      860.933
06/05/2013  21:33:00      -88.831      -10.318      -13.223       30.858       23.856       13.005      952.192      569.085      169.133        0.493        0.085       89.429       14.545        0.026      347.543       26.589      860.925
06/05/2013  21:34:00     -132.184      -54.752      -13.250       14.517       16.870       13.652      210.748      284.584      186.384        1.066        0.034      143.075       10.687        0.006      347.446       26.421      860.945
06/05/2013  21:35:00     -105.135      -27.862       -5.838       18.934       30.122       11.937      358.487      907.331      142.488        0.664        0.070      108.764        7.372        0.005      347.334       26.228      860.950
06/05/2013  21:36:00      -73.731      -45.118       -6.823       26.440       17.027       15.338      699.057      289.919      235.244        0.437        0.061       86.440        7.971        0.009      347.363       26.277      860.960
06/05/2013  21:37:00      -74.793      -17.583       -4.796       25.893       25.538       14.109      670.465      652.215      199.070        0.372        0.076       76.832       13.128        0.029      347.376       26.300      860.958
06/05/2013  21:38:00      -93.558        8.781       -8.616       26.316       16.915       10.589      692.508      286.103      112.133        0.500        0.055       93.969        9.712        0.011      347.345       26.247      860.963
06/05/2013  21:39:00      -68.124       -0.744       -4.196       26.086       32.585       13.931      680.472     1061.794      194.077        0.330        0.097       68.128        6.595        0.009      347.346       26.249      860.976
06/05/2013  21:40:00      -91.010      -30.535       -8.100       19.116       21.052       12.360      365.430      443.189      152.770        0.512        0.048       95.996        7.147        0.006      347.171       25.946      860.991
06/05/2013  21:41:00      -82.932      -31.672       -7.630       47.586       31.947       22.129     2264.469     1020.584      489.688        0.586        0.189       88.774       14.901        0.028      347.039       25.720      861.014
06/05/2013  21:42:00      -54.400      -71.453        4.866       41.401       37.098       22.667     1714.044     1376.263      513.781        0.585        0.180       89.805       18.403        0.042      347.054       25.746      861.037
06/05/2013  21:43:00      -71.570      -71.996        7.420       47.947       39.761       27.069     2298.955     1580.924      732.712        0.749        0.231      101.517       19.108        0.035      347.154       25.919      861.048
06/05/2013  21:44:00     -136.143      -61.489       -7.462       44.591       42.824       22.184     1988.359     1833.886      492.126        1.334        0.216      149.385       23.577        0.025      347.272       26.121      861.057
06/05/2013  21:45:00     -105.667      -19.242       -4.691       29.597       28.412       17.211      875.961      807.234      296.215        0.677        0.099      107.405        9.945        0.009      347.201       25.999      861.070
06/05/2013  21:46:00     -103.730      -28.669       -6.139       27.585       26.875       16.283      760.955      722.284      265.128        0.668        0.087      107.618       15.757        0.021      347.268       26.115      861.076
06/05/2013  21:47:00     -134.804      -57.800        0.775       29.931       30.897       17.627      895.874      954.645      310.697        1.184        0.108      146.673       15.001        0.010      347.152       25.914      861.101
06/05/2013  21:48:00     -162.477        4.589      -17.174       34.000       24.686       19.316     1155.998      609.403      373.108        1.443        0.107      162.541       17.735        0.012      347.074       25.780      861.118
06/05/2013  21:49:00     -155.529       25.245      -16.010       44.117       22.238       15.771     1946.273      494.519      248.719        1.389        0.134      157.564       14.359        0.008      347.042       25.725      861.140
06/05/2013  21:50:00     -136.087      -54.892       -6.614       28.870       35.602       20.506      833.488     1267.505      420.501        1.205        0.126      146.740       15.933        0.012      347.008       25.666      861.148
06/05/2013  21:51:00     -174.133      -34.627       -5.670       42.171       40.658       27.700     1778.356     1653.084      767.317        1.788        0.210      177.543       26.048        0.022      346.958       25.580      861.151
06/05/2013  21:52:00     -127.077      -16.634       -5.815       34.080       31.352       22.436     1161.452      982.952      503.361        0.955        0.132      128.161       18.978        0.022      347.097       25.819      861.143
06/05/2013  21:53:00     -143.425       12.965       -8.175       42.986       35.426       26.119     1847.764     1255.035      682.179        1.229        0.189      144.010       23.977        0.028      346.818       25.341      861.149
06/05/2013  21:54:00     -202.386        1.048      -17.448       29.477       36.280       23.428      868.880     1316.238      548.848        2.200        0.137      202.389       17.349        0.007      346.873       25.432      861.152
06/05/2013  21:55:00     -158.318      -55.443        6.002       65.536       61.334       36.201     4294.971     3761.817     1310.484        1.877        0.468      167.745       34.460        0.042      347.052       25.740      861.142
06/05/2013  21:56:00     -182.847      -64.526        1.387       71.620       55.072       29.106     5129.383     3032.968      847.146        2.330        0.450      193.898       29.524        0.023      347.288       26.147      861.131
06/05/2013  21:57:00     -173.295      -59.882        3.764       53.610       52.626       36.089     2874.028     2769.449     1302.431        2.029        0.347      183.349       32.107        0.031      347.290       26.150      861.123
06/05/2013  21:58:00     -171.264      -65.586        4.500       75.758       52.410       34.249     5739.207     2746.840     1172.997        2.165        0.483      183.393       38.210        0.043      347.182       25.963      861.113
06/05/2013  21:59:00     -178.443      -49.536        1.196       70.648       54.210       36.379     4991.087     2938.737     1323.453        2.177        0.463      185.191       37.958        0.042      347.291       26.151      861.109
06/05/2013  22:00:00     -143.429      -38.962        6.033       95.662       52.119       31.411     9151.151     2716.380      986.680        1.749        0.643      148.627       43.146        0.084      347.490       26.494      861.103
06/05/2013  22:01:00     -139.842      -78.379        3.990       57.213       48.238       35.586     3273.369     2326.883     1266.394        1.629        0.343      160.309       34.346        0.046      347.618       26.716      861.094
06/05/2013  22:02:00     -127.516      -68.003       -4.197       46.065       37.736       30.685     2121.951     1423.993      941.559        1.269        0.224      144.516       25.299        0.031      347.707       26.871      861.092
06/05/2013  22:03:00     -113.062      -93.452        9.374      103.657       82.376       39.285    10744.779     6785.724     1543.272        2.034        0.954      146.684       49.529        0.114      347.754       26.950      861.086
06/05/2013  22:04:00     -170.207      -92.915        1.756       92.376       52.823       37.239     8533.267     2790.235     1386.710        2.516        0.636      193.917       41.486        0.046      347.922       27.240      861.086
06/05/2013  22:05:00      -86.469      -53.547       14.483       82.554       68.766       43.689     6815.153     4728.718     1908.743        1.200        0.673      101.707       45.219        0.198      347.715       26.885      861.081
06/05/2013  22:06:00     -218.200      -94.747      -11.986       88.345       62.828       39.222     7804.820     3947.305     1538.360        3.501        0.665      237.882       38.955        0.027      347.828       27.076      861.087
06/05/2013  22:07:00     -186.885      -74.584      -10.517       78.292       61.213       37.276     6129.582     3747.089     1389.523        2.593        0.563      201.219       39.092        0.038      347.816       27.055      861.091
06/05/2013  22:08:00     -197.889      -18.404      -14.716       63.431       51.058       29.183     4023.509     2606.939      851.628        2.360        0.374      198.743       27.611        0.019      347.867       27.144      861.106
06/05/2013  22:09:00     -187.934       -9.172      -13.312       85.648       58.072       43.047     7335.634     3372.334     1853.077        2.407        0.628      188.158       35.927        0.036      347.851       27.117      861.107
06/05/2013  22:10:00     -147.326      -29.041       -7.158       54.332       55.811       33.042     2951.922     3114.895     1091.768        1.488        0.358      150.161       32.890        0.048      347.753       26.949      861.122
06/05/2013  22:11:00     -198.640      -14.155      -12.549       57.162       50.065       38.182     3267.500     2506.530     1457.898        2.352        0.362      199.143       35.626        0.032      347.712       26.877      861.138
06/05/2013  22:12:00     -188.271      -23.207      -12.901       51.905       39.842       27.558     2694.175     1587.401      759.465        2.059        0.252      189.696       20.950        0.012      347.591       26.669      861.143
06/05/2013  22:13:00     -182.503      -32.558       -4.562       56.062       41.290       30.341     3142.990     1704.874      920.571        2.008        0.288      185.384       33.150        0.032      347.552       26.602      861.153
06/05/2013  22:14:00     -118.393      -25.195       -3.172       45.851       39.103       27.055     2102.285     1529.034      731.953        0.951        0.218      121.044       25.209        0.043      347.390       26.324      861.158
06/05/2013  22:15:00     -191.212       34.520      -22.825       38.654       26.794       20.307     1494.129      717.916      412.388        2.045        0.131      194.303       13.643        0.005      347.433       26.397      861.180
06/05/2013  22:16:00     -121.394      -43.486      -13.763       40.802       32.300       26.195     1664.829     1043.279      686.166        1.010        0.170      128.948       20.004        0.024      347.283       26.140      861.188
06/05/2013  22:17:00     -117.145      -41.909       -7.356       35.890       42.142       18.583     1288.077     1775.948      345.314        0.947        0.170      124.416       12.332        0.010      347.193       25.987      861.192
06/05/2013  22:18:00     -159.134      -34.296      -11.243       38.663       35.011       25.364     1494.808     1225.801      643.337        1.499        0.168      162.788       17.382        0.011      347.141       25.896      861.203
06/05/2013  22:19:00     -135.432      -34.687       -5.716       54.845       39.553       30.650     3007.985     1564.446      939.417        1.254        0.276      139.804       27.111        0.038      347.199       25.994      861.200
06/05/2013  22:20:00     -146.399      -23.172       -6.689       41.624       33.658       23.676     1732.524     1132.857      560.539        1.272        0.171      148.222       21.237        0.021      347.137       25.888      861.203
06/05/2013  22:21:00     -133.019       22.585      -12.720       48.100       41.550       22.080     2313.595     1726.441      487.539        1.145        0.226      134.923       26.515        0.039      346.948       25.564      861.225
06/05/2013  22:22:00      -62.362      -34.983        8.915       66.940       44.330       34.219     4480.984     1965.159     1170.954        0.640        0.381       71.504       37.893        0.281      346.917       25.511      861.198
06/05/2013  22:23:00      -70.023      -50.627       -2.509       52.183       28.884       32.431     2723.091      834.295     1051.758        0.604        0.230       86.408       32.617        0.142      346.820       25.341      861.197
06/05/2013  22:24:00      -45.013      -26.261        2.191       33.411       18.679       14.361     1116.265      348.909      206.234        0.220        0.084       52.113       11.707        0.050      346.862       25.416      861.201
06/05/2013  22:25:00      -87.540      -79.533       -5.945       37.334       34.962       20.324     1393.799     1222.320      413.084        0.853        0.151      118.274       20.350        0.030      346.912       25.500      861.188
06/05/2013  22:26:00      -63.444        8.976       -3.656       26.886       44.456       15.711      722.870     1976.312      246.845        0.353        0.147       64.076       14.173        0.049      346.866       25.421      861.209
06/05/2013  22:27:00     -117.831       -0.148      -17.317       15.342       23.645       10.733      235.386      559.096      115.206        0.755        0.045      117.831        7.230        0.004      346.825       25.350      861.218
06/05/2013  22:28:00     -137.231      -58.189      -15.704       11.472       23.259       11.108      131.607      540.983      123.382        1.163        0.040      149.058        7.007        0.002      346.828       25.353      861.217
06/05/2013  22:29:00     -106.073      -56.581       -0.116       37.718       24.866       23.665     1422.663      618.318      560.041        0.853        0.130      120.220       23.781        0.039      346.715       25.161      861.214
06/05/2013  22:30:00     -120.904      -37.459        1.675       28.819       27.023       14.905      830.551      730.253      222.173        0.890        0.089      126.574       13.363        0.011      346.784       25.280      861.217
06/05/2013  22:31:00     -104.664      -23.417        2.277       42.775       32.518       15.255     1829.697     1057.391      232.722        0.731        0.156      107.251       16.045        0.022      346.773       25.263      861.228
06/05/2013  22:32:00     -105.655      -11.106       -0.847       46.882       22.196       18.180     2197.905      492.643      330.511        0.715        0.151      106.237       23.330        0.048      346.672       25.088      861.236
06/05/2013  22:33:00     -135.824      -11.062      -12.086       26.160       28.187        9.979      684.325      794.533       99.573        1.015        0.079      136.274       10.391        0.006      346.716       25.163      861.239
06/05/2013  22:34:00      -89.707      -41.066       -4.541       18.905       16.775       14.182      357.404      281.404      201.131        0.530        0.042       98.660        8.204        0.007      346.722       25.176      861.231
06/05/2013  22:35:00      -90.968      -43.715       -5.279       15.367       16.035       10.258      236.140      257.128      105.235        0.541        0.030      100.927        6.897        0.005      346.751       25.225      861.221
06/05/2013  22:36:00      -88.782      -37.419       -3.751       40.019       22.305       18.253     1601.552      497.491      333.158        0.586        0.122       96.345       20.215        0.044      346.736       25.198      861.223
06/05/2013  22:37:00      -60.935      -11.357        3.852       54.076       23.456       15.155     2924.176      550.175      229.668        0.378        0.185       61.984       21.334        0.118      346.715       25.162      861.232
06/05/2013  22:38:00      -86.396      -23.819       -1.230       27.804       22.362       16.962      773.044      500.061      287.702        0.480        0.078       89.620       16.692        0.035      346.622       25.003      861.243
06/05/2013  22:39:00      -23.203      -20.995        2.273       31.111       24.520       25.483      967.925      601.225      649.373        0.160        0.111       31.292       20.597        0.433      346.511       24.810      861.246
06/05/2013  22:40:00     -101.365      -45.463        0.419       30.533       23.271       16.805      932.248      541.532      282.396        0.705        0.088      111.093       12.621        0.013      346.712       25.158      861.258
06/05/2013  22:41:00      -56.481      -31.099        6.982       36.236       22.843       18.528     1313.029      521.780      343.291        0.319        0.109       64.477       16.187        0.063      346.640       25.032      861.256
06/05/2013  22:42:00      -75.083        9.465        0.725       26.170       14.452       10.747      684.860      208.849      115.508        0.337        0.050       75.678       11.963        0.025      346.481       24.757      861.284
06/05/2013  22:43:00      -82.289      -27.296       -7.182       23.948       12.995       10.667      573.501      168.860      113.785        0.421        0.043       86.698        6.161        0.005      346.572       24.916      861.302
06/05/2013  22:44:00      -94.830        4.480       -3.962       24.896       14.993        8.432      619.791      224.792       71.100        0.497        0.046       94.936       10.188        0.012      346.584       24.936      861.324
06/05/2013  22:45:00     -129.644      -14.672      -16.076       14.393       18.545       10.910      207.169      343.901      119.028        0.898        0.034      130.471       10.202        0.006      346.657       25.062      861.350
06/05/2013  22:46:00     -173.965      -74.056      -17.066       22.292       32.765       17.281      496.952     1073.546      298.630        1.895        0.093      189.072       13.256        0.005      346.652       25.054      861.368
06/05/2013  22:47:00     -155.730      -90.185       -1.360       45.953       38.820       27.897     2111.718     1507.012      778.226        1.839        0.220      179.959       26.346        0.021      346.528       24.841      861.367
06/05/2013  22:48:00     -224.916      -93.087       -2.332       69.203       43.569       32.308     4788.991     1898.258     1043.806        3.349        0.387      243.418       27.256        0.013      346.646       25.038      861.363
06/05/2013  22:49:00     -187.130      -77.803        2.749       72.935       59.568       37.248     5319.541     3548.350     1387.393        2.566        0.513      202.659       36.060        0.032      346.701       25.135      861.368
06/05/2013  22:50:00     -167.456      -98.275      -10.159       93.559       65.289       38.036     8753.209     4262.616     1446.703        2.613        0.723      194.164       31.341        0.026      346.920       25.512      861.367
06/05/2013  22:51:00     -166.467      -89.016      -10.337       77.249       45.512       34.220     5967.362     2071.356     1170.976        2.247        0.460      188.772       37.569        0.040      346.922       25.514      861.371
06/05/2013  22:52:00     -117.977      -55.999        3.716       89.017       76.806       37.351     7924.020     5899.091     1395.090        1.614        0.761      130.592       40.094        0.094      346.889       25.461      861.365
06/05/2013  22:53:00     -163.651      -26.185       -1.696       73.343       76.289       41.288     5379.241     5820.047     1704.705        2.018        0.645      165.732       36.196        0.048      346.894       25.468      861.381
06/05/2013  22:54:00     -248.285      -32.596      -20.561       81.293       61.722       38.182     6608.531     3809.605     1457.889        3.750        0.594      250.416       24.274        0.009      346.945       25.553      861.379
06/05/2013  22:55:00     -116.428      -60.097       -2.482       82.318       67.742       38.709     6776.322     4588.962     1498.373        1.502        0.643      131.023       42.720        0.106      346.883       25.450      861.379
06/05/2013  22:56:00     -204.483      -70.089      -12.791       53.864       47.284       28.989     2901.368     2235.812      840.361        2.643        0.299      216.162       24.492        0.013      346.812       25.325      861.382
06/05/2013  22:57:00     -164.452      -56.273      -10.349       62.984       48.651       28.242     3967.044     2366.906      797.608        1.872        0.357      173.813       28.991        0.028      346.789       25.288      861.386
06/05/2013  22:58:00     -170.009      -46.233       -6.130       61.994       58.318       29.201     3843.294     3400.977      852.683        1.959        0.405      176.183       16.032        0.008      346.809       25.321      861.387
06/05/2013  22:59:00     -164.023      -44.912        2.976       58.469       58.376       27.032     3418.682     3407.776      730.722        1.824        0.378      170.061       25.364        0.022      346.815       25.333      861.381
06/05/2013  23:00:00     -185.531      -28.263      -10.909       68.144       61.467       42.957     4643.616     3778.137     1845.330        2.280        0.513      187.672       35.597        0.036      346.852       25.395      861.379
06/05/2013  23:01:00     -213.827      -67.353      -12.378       82.287       54.598       42.578     6771.201     2980.914     1812.911        3.099        0.578      224.184       42.661        0.036      346.848       25.386      861.370
06/05/2013  23:02:00     -158.368      -74.940       -5.722       83.929       65.604       41.449     7044.091     4303.929     1718.060        2.190        0.653      175.204       45.290        0.067      346.858       25.406      861.368
06/05/2013  23:03:00     -253.222      -21.498      -15.542      103.147       66.384       44.465    10639.223     4406.892     1977.148        4.092        0.851      254.133       46.462        0.033      346.886       25.453      861.382
06/05/2013  23:04:00     -254.903      -78.080      -11.742       84.166       75.226       43.801     7083.851     5659.022     1918.570        4.293        0.733      266.594       43.034        0.026      346.879       25.441      861.386
06/05/2013  23:05:00     -221.080      -41.487       -8.506       89.890       64.001       42.251     8080.220     4096.065     1785.125        3.231        0.698      224.939       34.946        0.024      346.851       25.394      861.391
06/05/2013  23:06:00     -203.580      -47.614       -1.276       94.640       62.172       42.307     8956.699     3865.331     1789.867        2.916        0.731      209.074       44.871        0.046      346.907       25.491      861.404
06/05/2013  23:07:00     -168.646      -43.520      -12.545       78.187       79.109       41.363     6113.254     6258.311     1710.872        2.228        0.704      174.171       38.479        0.049      346.889       25.459      861.396
06/05/2013  23:08:00     -229.609      -41.395       -7.709       83.605       52.273       36.531     6989.874     2732.439     1334.480        3.277        0.553      233.310       33.822        0.021      346.971       25.600      861.390
06/05/2013  23:09:00     -249.788      -61.809       -9.574       74.767       68.628       42.214     5590.091     4709.807     1782.039        3.919        0.604      257.321       32.849        0.016      346.983       25.618      861.387
06/05/2013  23:10:00     -257.430     -100.891       -5.704      104.507       78.280       39.842    10921.677     6127.778     1587.408        4.756        0.932      276.494       42.542        0.024      346.985       25.622      861.384
06/05/2013  23:11:00     -222.675      -37.735      -12.498       89.202       57.675       39.961     7956.941     3326.415     1596.887        3.202        0.644      225.850       43.561        0.037      347.021       25.684      861.379
06/05/2013  23:12:00     -174.566      -39.749       -7.325       58.531       44.036       29.981     3425.820     1939.190      898.859        1.918        0.313      179.034       27.778        0.024      347.016       25.678      861.391
06/05/2013  23:13:00     -181.899      -50.662       -3.783       70.196       44.809       30.524     4927.423     2007.832      931.698        2.177        0.393      188.822       32.429        0.029      347.037       25.714      861.385
06/05/2013  23:14:00     -177.179      -43.263        3.281       85.537       52.895       34.445     7316.602     2797.868     1186.473        2.229        0.565      182.384       36.443        0.040      347.075       25.779      861.375
06/05/2013  23:15:00     -162.762      -28.463       -5.835       77.666       45.983       35.387     6032.010     2114.469     1252.223        1.837        0.470      165.232       42.522        0.066      347.151       25.910      861.388
06/05/2013  23:16:00     -119.697      -54.036       -2.850       52.833       42.416       33.012     2791.288     1799.101     1089.818        1.147        0.284      131.328       32.188        0.060      347.101       25.826      861.385
06/05/2013  23:17:00     -102.451      -29.678        2.935       44.908       37.978       22.256     2016.761     1442.347      495.336        0.767        0.198      106.663       17.862        0.028      347.177       25.958      861.374
06/05/2013  23:18:00     -137.422      -27.354       -5.897       35.217       32.452       19.573     1240.226     1053.119      383.098        1.117        0.134      140.118       18.404        0.017      347.201       25.997      861.378
06/05/2013  23:19:00      -81.275      -48.480        3.846       38.248       30.132       17.258     1462.896      907.953      297.846        0.582        0.133       94.636       14.964        0.025      347.142       25.897      861.365
06/05/2013  23:20:00     -112.166       -0.207       -7.195       45.467       21.257       13.249     2067.253      451.877      175.544        0.766        0.135      112.166       14.759        0.017      347.208       26.012      861.360
06/05/2013  23:21:00      -89.775       41.495       -7.810       24.314       27.074       18.007      591.191      732.985      324.270        0.575        0.082       98.901       14.561        0.022      347.162       25.932      861.367
06/05/2013  23:22:00      -92.883       33.873       -8.554       27.072       24.393       14.426      732.902      595.036      208.102        0.569        0.077       98.867        9.955        0.010      347.256       26.091      861.390
06/05/2013  23:23:00      -90.427       21.271       -5.213       34.552       17.961       12.640     1193.866      322.614      159.764        0.517        0.084       92.896       12.790        0.019      347.196       25.990      861.381
06/05/2013  23:24:00     -109.258       40.127      -10.460       33.944       27.419       13.907     1152.186      751.828      193.393        0.788        0.105      116.393       11.540        0.010      347.267       26.112      861.381
06/05/2013  23:25:00     -146.536       40.734      -10.084       23.456       23.059       14.326      550.205      531.704      205.242        1.226        0.064      152.092       11.852        0.006      347.358       26.270      861.395
06/05/2013  23:26:00     -134.246      -18.225       -8.239       47.862       34.236       25.190     2290.778     1172.072      634.533        1.126        0.205      135.478       23.937        0.031      347.258       26.095      861.396
06/05/2013  23:27:00     -158.434      -47.944        0.452       63.842       40.553       28.236     4075.826     1644.553      797.298        1.696        0.326      165.530       26.435        0.026      347.349       26.251      861.391
06/05/2013  23:28:00     -143.640      -65.009       -2.458       43.586       38.156       26.234     1899.697     1455.871      688.234        1.445        0.202      157.666       24.154        0.023      347.213       26.020      861.394
06/05/2013  23:29:00     -208.340     -109.148       -4.854       61.113       45.521       33.333     3734.810     2072.148     1111.119        3.113        0.346      235.200       31.554        0.018      347.601       26.685      861.377
06/05/2013  23:30:00     -111.079      -63.402       -1.610       41.506       31.679       21.483     1722.773     1003.546      461.534        0.977        0.159      127.900       20.608        0.026      347.263       26.105      861.369
06/05/2013  23:31:00      -76.529      -63.081        2.428       58.931       36.335       25.512     3472.813     1320.222      650.851        0.764        0.272       99.177       32.796        0.109      347.240       26.066      861.366
06/05/2013  23:32:00      -16.658      -36.858       15.170       31.834       30.017       18.555     1013.427      901.007      344.295        0.206        0.113       40.448       19.957        0.243      347.061       25.758      861.367
06/05/2013  23:33:00      -52.042     -105.400       -2.547       46.613       35.673       23.089     2172.774     1272.537      533.102        0.890        0.199      117.548       24.015        0.042      347.116       25.851      861.369
06/05/2013  23:34:00      -40.109      -72.119       -5.550       32.930       31.928       16.101     1084.406     1019.425      259.255        0.460        0.118       82.522       14.385        0.030      347.042       25.724      861.373
06/05/2013  23:35:00      -27.087      -50.602       -0.421       35.425       25.093       26.842     1254.928      629.658      720.514        0.295        0.130       57.396       15.385        0.072      347.043       25.729      861.375
06/05/2013  23:36:00      -78.659      -99.775       -1.732       79.272       48.774       27.467     6284.022     2378.933      754.423        1.278        0.471      127.052       28.582        0.051      347.062       25.757      861.373
06/05/2013  23:37:00      -58.811      -71.444        4.178       42.756       45.867       21.303     1828.115     2103.744      453.825        0.648        0.219       92.537       21.428        0.054      346.996       25.646      861.386
06/05/2013  23:38:00      -74.285      -32.840       -5.445       43.066       29.045       15.292     1854.700      843.615      233.832        0.478        0.147       81.221       14.846        0.033      346.957       25.579      861.414
06/05/2013  23:39:00        7.377      -30.981       11.400       22.985       41.129       21.922      528.315     1691.598      480.574        0.192        0.135       31.847       23.099        0.526      346.822       25.347      861.403
06/05/2013  23:40:00       24.765      -33.257       -3.568       14.067       18.670       15.134      197.877      348.572      229.042        0.125        0.039       41.465       13.748        0.110      346.760       25.240      861.388
06/05/2013  23:41:00      -15.000      -68.467        0.082       31.229       32.130       20.369      975.225     1032.351      414.897        0.367        0.121       70.091       21.492        0.094      347.018       25.683      861.410
06/05/2013  23:42:00      -32.807      -46.858       -4.426       23.666       17.760       13.711      560.074      315.421      187.978        0.218        0.053       57.201       11.320        0.039      346.939       25.548      861.425
06/05/2013  23:43:00      -25.055      -19.838        4.970       33.660       34.043       20.951     1132.984     1158.955      438.958        0.189        0.137       31.958       21.548        0.455      346.755       25.230      861.447
06/05/2013  23:44:00      -51.339      -91.978       -2.222       34.808       33.681       25.376     1211.587     1134.382      643.931        0.704        0.149      105.336       19.849        0.036      346.941       25.550      861.454
06/05/2013  23:45:00      -24.850      -34.923       -0.895       26.669       33.432       11.744      711.254     1117.721      137.917        0.190        0.098       42.862        8.217        0.037      346.856       25.403      861.444
06/05/2013  23:46:00       -3.375      -35.426        7.180       30.299       28.570       22.633      918.019      816.254      512.265        0.178        0.112       35.586       11.734        0.109      346.722       25.175      861.446
06/05/2013  23:47:00        3.833      -34.310        6.592       18.319       25.302       17.002      335.576      640.182      289.081        0.125        0.063       34.524       14.860        0.185      346.707       25.148      861.459
06/05/2013  23:48:00      -23.701      -55.587      -17.361       41.130       25.463       18.908     1691.657      648.376      357.531        0.332        0.135       60.428       19.945        0.109      346.945       25.559      861.469
06/05/2013  23:49:00        8.850      -42.275        5.709       24.383       17.041       17.697      594.513      290.402      313.175        0.155        0.060       43.192        8.227        0.036      346.840       25.378      861.478
06/05/2013  23:50:00     -101.038      -34.342       -1.651       65.346       41.700       27.555     4270.065     1738.858      759.294        0.908        0.338      106.715       32.003        0.090      346.861       25.412      861.487
06/05/2013  23:51:00      -93.720      -91.333        5.960       57.548       63.093       31.887     3311.757     3980.701     1016.798        1.273        0.415      130.863       30.727        0.055      347.105       25.833      861.476
06/05/2013  23:52:00     -131.149      -54.579        0.746       97.871       49.859       32.164     9578.786     2485.905     1034.536        1.664        0.655      142.053       40.517        0.081      347.061       25.758      861.481
06/05/2013  23:53:00     -105.090      -59.225        4.649       79.676       47.689       36.706     6348.228     2274.201     1347.295        1.227        0.498      120.630       33.459        0.077      347.065       25.763      861.497
06/05/2013  23:54:00     -130.030      -83.124       -7.915       69.253       49.470       34.799     4796.019     2447.273     1210.951        1.617        0.423      154.329       34.498        0.050      347.168       25.941      861.496
06/05/2013  23:55:00     -173.037     -157.951       -6.338       97.554       85.039       45.672     9516.689     7231.631     2085.889        3.688        0.942      234.287       52.304        0.050      347.211       26.012      861.506
06/05/2013  23:56:00     -162.422     -132.510      -16.164       52.029       43.898       36.768     2707.015     1927.024     1351.849        2.509        0.299      209.618       25.905        0.015      347.108       25.837      861.531
06/05/2013  23:57:00      -99.065      -59.288        5.167       56.248       41.701       29.169     3163.810     1738.981      850.839        0.955        0.288      115.451       30.756        0.071      347.063       25.761      861.538
06/05/2013  23:58:00      -89.112      -49.848       -6.303       41.502       49.426       27.403     1722.403     2442.929      750.930        0.769        0.246      102.106       24.723        0.059      347.077       25.784      861.539
06/05/2013  23:59:00      -91.525      -84.958        9.610       89.431       64.851       29.702     7997.972     4205.621      882.184        1.438        0.654      124.879       39.483        0.100      347.027       25.696      861.549
